AFR672A LFPG-FMEE

Flight info

Callsign AFR672A
Flight time 10h 30m
Altitude 31000
Route BUBLI DCT LUVAL DCT SHARA DCT DEVDI DCT ODINA DCT GOXIN DCT LIKNO DCT NAVAG DCT DINOB DCT SALUN/N0494F330 DCT BOPIX DCT TAKRI P751 LXR DCT JDW DCT RIBAM G650 RASKA/N0503F340 G650 ULONI UG650 ASM/N0506F330 UR780 SETIT DCT XADOX/N0498F350 DCT DWA UN304 APKAK/N0496F360 UN304 ALRUS/N0499F350 DCT IXEBU DCT UVENA UVENA2R
Aircraft B77W/H-SDE1E2E3FGHIJ2J3J4J5M1RWXY/LB1D1

Departure

Time 2026-04-24 23:37
Airport Charles de Gaulle International Airport (LFPG)

Arrival

Time 2026-04-25 10:08
Airport Roland Garros Airport (FMEE)
Time Latitude Longitude Altitude Speed Heading
2026-04-24 22:46 49.00142 2.57626 359 ft 0 kts 355°
2026-04-24 23:03 49.00133 2.57628 359 ft 4 kts 354°
2026-04-24 23:03 49.00106 2.57633 365 ft 4 kts 347°
2026-04-24 23:04 49.00081 2.57645 361 ft 4 kts 330°
2026-04-24 23:04 49.00063 2.57669 362 ft 4 kts 277°
2026-04-24 23:04 49.00064 2.57705 359 ft 4 kts 265°
2026-04-24 23:04 49.00065 2.57724 363 ft 0 kts 265°
2026-04-24 23:08 49.00133 2.57625 359 ft 0 kts 356°
2026-04-24 23:09 49.00142 2.57626 359 ft 0 kts 355°
2026-04-24 23:20 49.00137 2.57627 359 ft 4 kts 355°
2026-04-24 23:20 49.00110 2.57632 359 ft 4 kts 348°
2026-04-24 23:20 49.00092 2.57638 359 ft 4 kts 341°
2026-04-24 23:20 49.00070 2.57656 359 ft 4 kts 309°
2026-04-24 23:21 49.00063 2.57686 359 ft 4 kts 266°
2026-04-24 23:21 49.00065 2.57723 359 ft 1 kts 265°
2026-04-24 23:21 49.00065 2.57724 359 ft 0 kts 265°
2026-04-24 23:23 49.00063 2.57686 359 ft 9 kts 265°
2026-04-24 23:24 49.00052 2.57559 366 ft 17 kts 262°
2026-04-24 23:24 49.00033 2.57321 361 ft 21 kts 255°
2026-04-24 23:24 48.99967 2.57251 365 ft 15 kts 221°
2026-04-24 23:24 48.99947 2.57116 367 ft 18 kts 266°
2026-04-24 23:25 48.99935 2.56872 364 ft 28 kts 266°
2026-04-24 23:25 48.99917 2.56542 365 ft 31 kts 264°
2026-04-24 23:25 48.99900 2.56248 366 ft 27 kts 265°
2026-04-24 23:25 48.99891 2.55968 359 ft 27 kts 274°
2026-04-24 23:26 48.99943 2.55715 365 ft 19 kts 313°
2026-04-24 23:26 49.00063 2.55638 367 ft 19 kts 343°
2026-04-24 23:26 49.00189 2.55584 364 ft 19 kts 344°
2026-04-24 23:26 49.00318 2.55530 365 ft 20 kts 344°
2026-04-24 23:27 49.00450 2.55472 359 ft 20 kts 344°
2026-04-24 23:27 49.00587 2.55414 365 ft 21 kts 344°
2026-04-24 23:27 49.00727 2.55351 363 ft 21 kts 342°
2026-04-24 23:27 49.00869 2.55287 367 ft 21 kts 344°
2026-04-24 23:28 49.01011 2.55224 367 ft 21 kts 343°
2026-04-24 23:28 49.01154 2.55163 359 ft 21 kts 344°
2026-04-24 23:28 49.01256 2.55011 362 ft 21 kts 305°
2026-04-24 23:28 49.01367 2.54934 366 ft 18 kts 344°
2026-04-24 23:29 49.01492 2.54900 367 ft 18 kts 353°
2026-04-24 23:29 49.01622 2.54881 364 ft 19 kts 356°
2026-04-24 23:29 49.01757 2.54865 359 ft 20 kts 355°
2026-04-24 23:29 49.01887 2.54848 359 ft 16 kts 352°
2026-04-24 23:30 49.01929 2.54735 364 ft 14 kts 268°
2026-04-24 23:30 49.01922 2.54580 363 ft 16 kts 265°
2026-04-24 23:30 49.01910 2.54357 362 ft 26 kts 265°
2026-04-24 23:30 49.01895 2.54052 364 ft 29 kts 266°
2026-04-24 23:31 49.01880 2.53742 362 ft 29 kts 264°
2026-04-24 23:31 49.01863 2.53476 365 ft 25 kts 264°
2026-04-24 23:31 49.01848 2.53206 359 ft 25 kts 266°
2026-04-24 23:31 49.01835 2.52940 359 ft 25 kts 265°
2026-04-24 23:32 49.01821 2.52674 361 ft 25 kts 265°
2026-04-24 23:32 49.01811 2.52425 365 ft 16 kts 280°
2026-04-24 23:32 49.01873 2.52337 368 ft 13 kts 313°
2026-04-24 23:32 49.01886 2.52206 363 ft 13 kts 265°
2026-04-24 23:33 49.01878 2.52072 367 ft 13 kts 265°
2026-04-24 23:33 49.01868 2.51909 365 ft 19 kts 265°
2026-04-24 23:33 49.01856 2.51669 364 ft 23 kts 266°
2026-04-24 23:33 49.01844 2.51403 362 ft 21 kts 265°
2026-04-24 23:34 49.01901 2.51256 363 ft 18 kts 339°
2026-04-24 23:34 49.01944 2.51249 363 ft 0 kts
2026-04-24 23:35 49.01946 2.51249 360 ft 2 kts
2026-04-24 23:36 49.02004 2.51293 367 ft 12 kts 37°
2026-04-24 23:36 49.02056 2.51388 363 ft 11 kts 61°
2026-04-24 23:36 49.02076 2.51507 366 ft 15 kts 85°
2026-04-24 23:36 49.02093 2.51835 360 ft 62 kts 85°
2026-04-24 23:37 49.02155 2.52953 365 ft 149 kts 85°
2026-04-24 23:37 49.02260 2.54945 386 ft 225 kts 85°
2026-04-24 23:37 49.02466 2.59955 1897 ft 216 kts 84°
2026-04-24 23:38 49.02601 2.62254 2141 ft 224 kts 82°
2026-04-24 23:38 49.02747 2.64693 2448 ft 235 kts 83°
2026-04-24 23:38 49.02892 2.67170 3089 ft 234 kts 83°
2026-04-24 23:38 49.03030 2.69677 3718 ft 236 kts 84°
2026-04-24 23:39 49.03165 2.72195 4118 ft 247 kts 84°
2026-04-24 23:39 49.03290 2.74839 4631 ft 253 kts 85°
2026-04-24 23:39 49.03416 2.77542 5160 ft 260 kts 85°
2026-04-24 23:39 49.03553 2.80314 5737 ft 264 kts 85°
2026-04-24 23:40 49.03693 2.83114 6370 ft 266 kts 86°
2026-04-24 23:40 49.03832 2.85947 6955 ft 271 kts 86°
2026-04-24 23:40 49.03975 2.88831 7548 ft 275 kts 86°
2026-04-24 23:40 49.03925 2.91733 8045 ft 275 kts 103°
2026-04-24 23:41 49.03324 2.94536 8483 ft 282 kts 110°
2026-04-24 23:41 49.02631 2.97349 9042 ft 285 kts 110°
2026-04-24 23:41 49.01962 3.00197 9585 ft 288 kts 109°
2026-04-24 23:41 49.01301 3.03110 10081 ft 293 kts 108°
2026-04-24 23:42 49.00636 3.06124 10523 ft 302 kts 108°
2026-04-24 23:42 48.99946 3.09304 10658 ft 322 kts 108°
2026-04-24 23:42 48.99234 3.12640 10826 ft 341 kts 108°
2026-04-24 23:42 48.98486 3.16176 10988 ft 360 kts 108°
2026-04-24 23:43 48.97707 3.19878 11334 ft 373 kts 108°
2026-04-24 23:43 48.96906 3.23685 11847 ft 382 kts 108°
2026-04-24 23:43 48.96090 3.27564 12528 ft 386 kts 108°
2026-04-24 23:43 48.95271 3.31459 13285 ft 388 kts 108°
2026-04-24 23:44 48.94444 3.35383 14003 ft 391 kts 108°
2026-04-24 23:44 48.93608 3.39344 14669 ft 395 kts 108°
2026-04-24 23:44 48.92763 3.43336 15342 ft 399 kts 108°
2026-04-24 23:44 48.91894 3.47426 15996 ft 403 kts 108°
2026-04-24 23:45 48.91032 3.51492 16646 ft 406 kts 108°
2026-04-24 23:45 48.90160 3.55595 17275 ft 409 kts 108°
2026-04-24 23:45 48.89277 3.59734 17890 ft 413 kts 109°
2026-04-24 23:45 48.88382 3.63890 18496 ft 416 kts 109°
2026-04-24 23:46 48.87471 3.68090 19062 ft 420 kts 109°
2026-04-24 23:46 48.86555 3.72307 19652 ft 423 kts 109°
2026-04-24 23:46 48.85629 3.76559 20220 ft 426 kts 109°
2026-04-24 23:46 48.84696 3.80844 20762 ft 428 kts 110°
2026-04-24 23:47 48.83756 3.85150 21295 ft 432 kts 110°
2026-04-24 23:47 48.82810 3.89485 21815 ft 434 kts 110°
2026-04-24 23:47 48.81855 3.93853 22330 ft 437 kts 110°
2026-04-24 23:47 48.80893 3.98242 22833 ft 440 kts 110°
2026-04-24 23:48 48.79949 4.02541 23313 ft 442 kts 111°
2026-04-24 23:48 48.78972 4.06976 23774 ft 445 kts 111°
2026-04-24 23:48 48.78299 4.09996 24082 ft 447 kts 112°
2026-04-24 23:48 48.77092 4.14333 24512 ft 447 kts 119°
2026-04-24 23:49 48.75600 4.18476 24942 ft 448 kts 124°
2026-04-24 23:49 48.73839 4.22367 25358 ft 448 kts 128°
2026-04-24 23:49 48.72007 4.26212 25764 ft 451 kts 128°
2026-04-24 23:49 48.70164 4.30069 26158 ft 453 kts 128°
2026-04-24 23:50 48.68317 4.33951 26566 ft 456 kts 128°
2026-04-24 23:50 48.66465 4.37855 26931 ft 458 kts 128°
2026-04-24 23:50 48.64604 4.41787 27287 ft 461 kts 128°
2026-04-24 23:50 48.62740 4.45728 27656 ft 463 kts 128°
2026-04-24 23:51 48.60864 4.49697 27988 ft 465 kts 128°
2026-04-24 23:51 48.58978 4.53683 28313 ft 467 kts 128°
2026-04-24 23:51 48.57086 4.57675 28603 ft 469 kts 128°
2026-04-24 23:51 48.55177 4.61690 28910 ft 471 kts 128°
2026-04-24 23:52 48.53264 4.65715 29188 ft 473 kts 128°
2026-04-24 23:52 48.51338 4.69760 29457 ft 475 kts 128°
2026-04-24 23:52 48.49406 4.73812 29708 ft 477 kts 129°
2026-04-24 23:52 48.47489 4.77822 29928 ft 479 kts 129°
2026-04-24 23:53 48.45541 4.81893 30212 ft 479 kts 129°
2026-04-24 23:53 48.43592 4.85960 30496 ft 479 kts 129°
2026-04-24 23:53 48.41642 4.90023 30769 ft 479 kts 129°
2026-04-24 23:53 48.39692 4.94082 31069 ft 479 kts 129°
2026-04-24 23:54 48.37737 4.98142 31296 ft 479 kts 129°
2026-04-24 23:54 48.35833 5.02097 31555 ft 479 kts 129°
2026-04-24 23:54 48.33875 5.06152 31817 ft 479 kts 129°
2026-04-24 23:54 48.31934 5.10216 32040 ft 480 kts 126°
2026-04-24 23:55 48.28748 5.19150 32141 ft 489 kts 116°
2026-04-24 23:55 48.26605 5.28815 32148 ft 487 kts 109°
2026-04-24 23:56 48.24697 5.38569 32142 ft 487 kts 109°
2026-04-24 23:56 48.22759 5.48313 32144 ft 487 kts 110°
2026-04-24 23:57 48.20788 5.58033 32142 ft 488 kts 110°
2026-04-24 23:57 48.18799 5.67754 32147 ft 488 kts 110°
2026-04-24 23:58 48.16798 5.77477 32156 ft 488 kts 110°
2026-04-24 23:58 48.14791 5.87196 32147 ft 489 kts 110°
2026-04-24 23:59 48.12788 5.96842 32147 ft 488 kts 110°
2026-04-24 23:59 48.10795 6.06419 32150 ft 488 kts 110°
2026-04-25 00:00 48.08766 6.16114 32144 ft 488 kts 110°
2026-04-25 00:00 48.06730 6.25797 32150 ft 487 kts 110°
2026-04-25 00:01 48.04688 6.35453 32145 ft 487 kts 110°
2026-04-25 00:01 48.02634 6.45116 32150 ft 488 kts 110°
2026-04-25 00:02 48.00569 6.54790 32140 ft 489 kts 110°
2026-04-25 00:02 47.98495 6.64465 32144 ft 490 kts 110°
2026-04-25 00:03 47.96167 6.73994 32146 ft 488 kts 114°
2026-04-25 00:03 47.93598 6.83359 32142 ft 488 kts 114°
2026-04-25 00:04 47.91022 6.92723 32155 ft 488 kts 114°
2026-04-25 00:04 47.88491 7.01973 32149 ft 489 kts 114°
2026-04-25 00:05 47.85922 7.11362 32153 ft 490 kts 114°
2026-04-25 00:05 47.83342 7.20755 32155 ft 490 kts 114°
2026-04-25 00:06 47.80748 7.30149 32156 ft 491 kts 114°
2026-04-25 00:06 47.78149 7.39545 32158 ft 492 kts 114°
2026-04-25 00:07 47.75501 7.48858 32149 ft 489 kts 120°
2026-04-25 00:07 47.73604 7.53027 32156 ft 486 kts 134°
2026-04-25 00:07 47.71113 7.56487 32166 ft 484 kts 145°
2026-04-25 00:08 47.68252 7.59065 32155 ft 479 kts 157°
2026-04-25 00:08 47.65220 7.61117 32171 ft 479 kts 157°
2026-04-25 00:08 47.59134 7.65242 32160 ft 483 kts 157°
2026-04-25 00:09 47.53021 7.69463 32161 ft 486 kts 156°
2026-04-25 00:09 47.46899 7.73739 32154 ft 487 kts 156°
2026-04-25 00:10 47.40783 7.78015 32158 ft 486 kts 156°
2026-04-25 00:10 47.34669 7.82278 32149 ft 485 kts 156°
2026-04-25 00:11 47.28581 7.86506 32155 ft 483 kts 156°
2026-04-25 00:11 47.22517 7.90706 32153 ft 481 kts 156°
2026-04-25 00:12 47.16468 7.94886 32158 ft 480 kts 157°
2026-04-25 00:12 47.10425 7.99047 32155 ft 479 kts 157°
2026-04-25 00:13 47.04469 8.03142 32153 ft 479 kts 156°
2026-04-25 00:13 46.98421 8.07289 32161 ft 481 kts 156°
2026-04-25 00:14 46.92345 8.11441 32163 ft 483 kts 156°
2026-04-25 00:14 46.86238 8.15611 32159 ft 486 kts 156°
2026-04-25 00:15 46.80100 8.19788 32163 ft 487 kts 156°
2026-04-25 00:15 46.73962 8.23957 32160 ft 487 kts 156°
2026-04-25 00:16 46.67823 8.28114 32152 ft 486 kts 156°
2026-04-25 00:16 46.61686 8.32257 32157 ft 486 kts 156°
2026-04-25 00:17 46.55551 8.36390 32143 ft 486 kts 156°
2026-04-25 00:17 46.49419 8.40511 32139 ft 485 kts 156°
2026-04-25 00:18 46.43295 8.44616 32130 ft 484 kts 156°
2026-04-25 00:18 46.37178 8.48709 32114 ft 484 kts 156°
2026-04-25 00:19 46.31062 8.52788 32115 ft 484 kts 156°
2026-04-25 00:19 46.24935 8.56866 32094 ft 484 kts 156°
2026-04-25 00:20 46.18851 8.60908 32093 ft 484 kts 156°
2026-04-25 00:20 46.12798 8.65187 32075 ft 486 kts 149°
2026-04-25 00:21 46.07468 8.71245 32088 ft 487 kts 136°
2026-04-25 00:21 46.02983 8.78587 32074 ft 489 kts 131°
2026-04-25 00:22 45.98581 8.86024 32077 ft 490 kts 131°
2026-04-25 00:22 45.94128 8.93455 32075 ft 490 kts 131°
2026-04-25 00:23 45.89758 9.00672 32075 ft 489 kts 131°
2026-04-25 00:23 45.85287 9.08017 32074 ft 488 kts 131°
2026-04-25 00:24 45.80820 9.15335 32082 ft 487 kts 131°
2026-04-25 00:24 45.76329 9.22677 32080 ft 486 kts 131°
2026-04-25 00:25 45.71869 9.29950 32083 ft 486 kts 131°
2026-04-25 00:25 45.67408 9.37204 32084 ft 486 kts 131°
2026-04-25 00:26 45.62938 9.44453 32080 ft 486 kts 131°
2026-04-25 00:26 45.59211 9.50485 32076 ft 486 kts 131°
2026-04-25 00:27 45.54727 9.57729 32073 ft 487 kts 131°
2026-04-25 00:27 45.50234 9.64960 32074 ft 487 kts 131°
2026-04-25 00:28 45.45704 9.72235 32074 ft 487 kts 132°
2026-04-25 00:28 45.41200 9.79447 32068 ft 488 kts 132°
2026-04-25 00:29 45.36717 9.86614 32056 ft 488 kts 132°
2026-04-25 00:29 45.32202 9.93807 32048 ft 488 kts 132°
2026-04-25 00:30 45.27727 10.00922 32038 ft 488 kts 132°
2026-04-25 00:30 45.23208 10.08088 32038 ft 487 kts 132°
2026-04-25 00:31 45.18686 10.15236 32035 ft 486 kts 132°
2026-04-25 00:31 45.14171 10.22357 32036 ft 485 kts 131°
2026-04-25 00:32 45.09657 10.29462 32038 ft 485 kts 131°
2026-04-25 00:32 45.05138 10.36552 32046 ft 485 kts 131°
2026-04-25 00:33 45.00626 10.43610 32057 ft 484 kts 131°
2026-04-25 00:33 44.96115 10.50655 32056 ft 484 kts 131°
2026-04-25 00:34 44.91595 10.57696 32057 ft 484 kts 131°
2026-04-25 00:34 44.87070 10.64722 32066 ft 483 kts 131°
2026-04-25 00:35 44.82549 10.71731 32066 ft 483 kts 131°
2026-04-25 00:35 44.78012 10.78735 32064 ft 484 kts 131°
2026-04-25 00:36 44.73472 10.85733 32080 ft 484 kts 131°
2026-04-25 00:36 44.68933 10.92719 32087 ft 484 kts 131°
2026-04-25 00:37 44.64385 10.99696 32090 ft 484 kts 131°
2026-04-25 00:37 44.59916 11.06532 32080 ft 484 kts 131°
2026-04-25 00:38 44.55362 11.13486 32070 ft 484 kts 131°
2026-04-25 00:38 44.50800 11.20431 32056 ft 484 kts 131°
2026-04-25 00:39 44.46242 11.27354 32060 ft 483 kts 131°
2026-04-25 00:39 44.41683 11.34260 32056 ft 483 kts 131°
2026-04-25 00:40 44.37118 11.41159 32056 ft 482 kts 131°
2026-04-25 00:40 44.32559 11.48041 32057 ft 482 kts 131°
2026-04-25 00:41 44.28029 11.54851 32065 ft 482 kts 131°
2026-04-25 00:41 44.23634 11.61902 32070 ft 481 kts 128°
2026-04-25 00:42 44.19355 11.69076 32077 ft 482 kts 128°
2026-04-25 00:42 44.15066 11.76240 32075 ft 482 kts 128°
2026-04-25 00:43 44.10759 11.83386 32072 ft 481 kts 128°
2026-04-25 00:43 44.06449 11.90505 32069 ft 481 kts 129°
2026-04-25 00:44 44.02138 11.97607 32077 ft 481 kts 129°
2026-04-25 00:44 43.97904 12.04563 32079 ft 481 kts 129°
2026-04-25 00:45 43.93587 12.11644 32082 ft 480 kts 129°
2026-04-25 00:45 43.89262 12.18722 32084 ft 480 kts 129°
2026-04-25 00:46 43.84938 12.25780 32087 ft 480 kts 129°
2026-04-25 00:47 43.78438 12.36347 32068 ft 481 kts 130°
2026-04-25 00:47 43.73903 12.43163 32064 ft 481 kts 132°
2026-04-25 00:48 43.69284 12.49863 32066 ft 481 kts 132°
2026-04-25 00:48 43.64684 12.56576 32061 ft 481 kts 131°
2026-04-25 00:49 43.60105 12.63307 32072 ft 481 kts 131°
2026-04-25 00:49 43.55530 12.70035 32072 ft 481 kts 131°
2026-04-25 00:50 43.50954 12.76746 32075 ft 481 kts 131°
2026-04-25 00:50 43.46369 12.83450 32075 ft 480 kts 131°
2026-04-25 00:51 43.41786 12.90142 32090 ft 481 kts 131°
2026-04-25 00:51 43.37194 12.96825 32076 ft 481 kts 131°
2026-04-25 00:52 43.32664 13.03403 32077 ft 480 kts 131°
2026-04-25 00:52 43.28072 13.10057 32091 ft 480 kts 131°
2026-04-25 00:53 43.23469 13.16709 32087 ft 481 kts 131°
2026-04-25 00:53 43.18861 13.23356 32083 ft 481 kts 131°
2026-04-25 00:54 43.14275 13.29948 32084 ft 481 kts 132°
2026-04-25 00:54 43.09660 13.36575 32079 ft 481 kts 131°
2026-04-25 00:55 43.05043 13.43188 32085 ft 480 kts 131°
2026-04-25 00:55 43.00423 13.49790 32071 ft 480 kts 132°
2026-04-25 00:56 42.95811 13.56363 32075 ft 479 kts 132°
2026-04-25 00:56 42.91190 13.62928 32074 ft 479 kts 132°
2026-04-25 00:57 42.86572 13.69486 32069 ft 479 kts 132°
2026-04-25 00:57 42.81957 13.76019 32075 ft 478 kts 132°
2026-04-25 00:58 42.77339 13.82542 32075 ft 478 kts 132°
2026-04-25 00:58 42.72719 13.89052 32073 ft 478 kts 132°
2026-04-25 00:59 42.68103 13.95542 32075 ft 477 kts 132°
2026-04-25 00:59 42.63558 14.01918 32072 ft 477 kts 132°
2026-04-25 01:00 42.58936 14.08387 32080 ft 477 kts 132°
2026-04-25 01:00 42.54294 14.14848 32073 ft 478 kts 132°
2026-04-25 01:01 42.49632 14.21280 32074 ft 478 kts 132°
2026-04-25 01:01 42.44969 14.27698 32073 ft 478 kts 132°
2026-04-25 01:02 42.40304 14.34115 32074 ft 478 kts 132°
2026-04-25 01:02 42.35641 14.40519 32077 ft 478 kts 133°
2026-04-25 01:03 42.30974 14.46909 32071 ft 478 kts 132°
2026-04-25 01:03 42.26301 14.53298 32074 ft 478 kts 133°
2026-04-25 01:04 42.21623 14.59680 32074 ft 478 kts 133°
2026-04-25 01:04 42.16945 14.66043 32074 ft 478 kts 133°
2026-04-25 01:05 42.12258 14.72408 32075 ft 478 kts 133°
2026-04-25 01:05 42.07564 14.78766 32072 ft 479 kts 133°
2026-04-25 01:06 42.02865 14.85118 32079 ft 479 kts 133°
2026-04-25 01:06 41.98207 14.91402 32072 ft 479 kts 133°
2026-04-25 01:07 41.93493 14.97743 32085 ft 479 kts 133°
2026-04-25 01:07 41.88862 15.03959 32085 ft 479 kts 133°
2026-04-25 01:08 41.84155 15.10266 32081 ft 478 kts 132°
2026-04-25 01:08 41.79446 15.16563 32075 ft 478 kts 133°
2026-04-25 01:09 41.74733 15.22850 32072 ft 478 kts 133°
2026-04-25 01:09 41.70018 15.29125 32087 ft 478 kts 133°
2026-04-25 01:10 41.66096 15.34336 32081 ft 478 kts 133°
2026-04-25 01:10 41.61371 15.40601 32082 ft 478 kts 133°
2026-04-25 01:11 41.56643 15.46853 32083 ft 479 kts 133°
2026-04-25 01:11 41.51908 15.53109 32074 ft 479 kts 133°
2026-04-25 01:12 41.47164 15.59357 32074 ft 479 kts 133°
2026-04-25 01:12 41.42410 15.65602 32076 ft 479 kts 133°
2026-04-25 01:13 41.37655 15.71834 32072 ft 479 kts 133°
2026-04-25 01:13 41.32897 15.78062 32074 ft 479 kts 133°
2026-04-25 01:14 41.28142 15.84270 32073 ft 479 kts 133°
2026-04-25 01:14 41.23381 15.90468 32074 ft 479 kts 133°
2026-04-25 01:15 41.18657 15.96613 32073 ft 478 kts 133°
2026-04-25 01:15 41.13973 16.02693 32073 ft 478 kts 133°
2026-04-25 01:16 41.09213 16.08855 32073 ft 478 kts 133°
2026-04-25 01:16 41.04450 16.15004 32075 ft 478 kts 133°
2026-04-25 01:17 40.99700 16.21130 32068 ft 478 kts 133°
2026-04-25 01:17 40.94936 16.27260 32060 ft 477 kts 133°
2026-04-25 01:18 40.90170 16.33371 32066 ft 477 kts 133°
2026-04-25 01:18 40.85407 16.39474 32067 ft 477 kts 133°
2026-04-25 01:19 40.80637 16.45571 32065 ft 477 kts 133°
2026-04-25 01:19 40.75869 16.51652 32066 ft 477 kts 133°
2026-04-25 01:20 40.71093 16.57734 32072 ft 477 kts 133°
2026-04-25 01:20 40.66316 16.63802 32071 ft 477 kts 133°
2026-04-25 01:21 40.61542 16.69850 32076 ft 476 kts 133°
2026-04-25 01:21 40.56764 16.75893 32076 ft 476 kts 133°
2026-04-25 01:22 40.51983 16.81925 32067 ft 476 kts 133°
2026-04-25 01:22 40.47202 16.87951 32067 ft 476 kts 133°
2026-04-25 01:23 40.42422 16.93961 32074 ft 476 kts 133°
2026-04-25 01:23 40.37636 16.99962 32067 ft 476 kts 133°
2026-04-25 01:24 40.32934 17.05849 32063 ft 476 kts 133°
2026-04-25 01:24 40.28141 17.11833 32055 ft 476 kts 133°
2026-04-25 01:25 40.23349 17.17802 32056 ft 476 kts 133°
2026-04-25 01:25 40.18557 17.23767 32058 ft 475 kts 133°
2026-04-25 01:26 40.13760 17.29722 32056 ft 476 kts 133°
2026-04-25 01:26 40.08964 17.35666 32056 ft 475 kts 133°
2026-04-25 01:27 40.04165 17.41600 32054 ft 475 kts 133°
2026-04-25 01:27 39.99406 17.47472 32047 ft 475 kts 133°
2026-04-25 01:28 39.92210 17.56332 32046 ft 474 kts 133°
2026-04-25 01:28 39.87411 17.62224 32046 ft 474 kts 133°
2026-04-25 01:29 39.82610 17.68106 32046 ft 474 kts 133°
2026-04-25 01:29 39.77806 17.73979 32047 ft 474 kts 133°
2026-04-25 01:30 39.72999 17.79845 32045 ft 474 kts 133°
2026-04-25 01:30 39.68193 17.85701 32046 ft 474 kts 133°
2026-04-25 01:31 39.63380 17.91550 32048 ft 474 kts 133°
2026-04-25 01:31 39.58565 17.97390 32048 ft 474 kts 133°
2026-04-25 01:32 39.53828 18.03124 32058 ft 474 kts 133°
2026-04-25 01:32 39.49005 18.08951 32052 ft 474 kts 133°
2026-04-25 01:33 39.44180 18.14772 32057 ft 474 kts 133°
2026-04-25 01:33 39.39348 18.20585 32042 ft 474 kts 133°
2026-04-25 01:34 39.34515 18.26388 32047 ft 474 kts 133°
2026-04-25 01:34 39.29677 18.32190 32047 ft 475 kts 133°
2026-04-25 01:35 39.24838 18.37981 32047 ft 474 kts 133°
2026-04-25 01:35 39.19988 18.43770 32045 ft 475 kts 133°
2026-04-25 01:36 39.15135 18.49551 32039 ft 476 kts 133°
2026-04-25 01:36 39.10269 18.55338 32037 ft 476 kts 133°
2026-04-25 01:37 39.05396 18.61125 32036 ft 477 kts 133°
2026-04-25 01:37 39.00518 18.66901 32037 ft 477 kts 133°
2026-04-25 01:38 38.95645 18.72664 32030 ft 477 kts 133°
2026-04-25 01:38 38.90759 18.78431 32027 ft 477 kts 134°
2026-04-25 01:39 38.85870 18.84188 32028 ft 477 kts 134°
2026-04-25 01:39 38.80981 18.89936 32022 ft 477 kts 134°
2026-04-25 01:40 38.76087 18.95680 32018 ft 477 kts 134°
2026-04-25 01:40 38.71301 19.01301 32018 ft 477 kts 133°
2026-04-25 01:41 38.66551 19.07212 32019 ft 476 kts 131°
2026-04-25 01:41 38.61865 19.13187 32019 ft 476 kts 131°
2026-04-25 01:42 38.57164 19.19137 32018 ft 476 kts 131°
2026-04-25 01:42 38.52442 19.25064 32019 ft 476 kts 132°
2026-04-25 01:43 38.47710 19.30978 32014 ft 476 kts 132°
2026-04-25 01:43 38.42971 19.36884 32008 ft 476 kts 132°
2026-04-25 01:44 38.38232 19.42783 32010 ft 476 kts 132°
2026-04-25 01:44 38.33490 19.48675 32008 ft 476 kts 133°
2026-04-25 01:45 38.28748 19.54556 32019 ft 476 kts 133°
2026-04-25 01:45 38.24004 19.60430 32018 ft 476 kts 133°
2026-04-25 01:46 38.19249 19.66301 32020 ft 477 kts 133°
2026-04-25 01:46 38.14492 19.72171 32019 ft 477 kts 133°
2026-04-25 01:47 38.09731 19.78030 32017 ft 477 kts 133°
2026-04-25 01:47 38.04965 19.83884 32019 ft 477 kts 133°
2026-04-25 01:48 38.00193 19.89735 32017 ft 477 kts 133°
2026-04-25 01:48 37.95422 19.95571 32020 ft 477 kts 133°
2026-04-25 01:49 37.90744 20.01284 32009 ft 477 kts 133°
2026-04-25 01:49 37.85964 20.07119 32020 ft 477 kts 133°
2026-04-25 01:50 37.81144 20.12977 32019 ft 477 kts 133°
2026-04-25 01:50 37.76357 20.18787 32019 ft 477 kts 133°
2026-04-25 01:51 37.71573 20.24586 32018 ft 476 kts 134°
2026-04-25 01:51 37.66785 20.30376 32004 ft 477 kts 134°
2026-04-25 01:52 37.61995 20.36169 31999 ft 477 kts 134°
2026-04-25 01:52 37.57203 20.41946 32001 ft 477 kts 134°
2026-04-25 01:53 37.52403 20.47722 32001 ft 477 kts 134°
2026-04-25 01:53 37.47596 20.53490 32001 ft 478 kts 134°
2026-04-25 01:54 37.42814 20.59220 32000 ft 478 kts 134°
2026-04-25 01:54 37.38777 20.64054 32000 ft 478 kts 134°
2026-04-25 01:55 37.33178 20.70738 32001 ft 478 kts 135°
2026-04-25 01:55 37.29140 20.75553 32000 ft 478 kts 135°
2026-04-25 01:56 37.24321 20.81288 31999 ft 478 kts 135°
2026-04-25 01:56 37.19499 20.87013 32001 ft 477 kts 135°
2026-04-25 01:57 37.12265 20.95587 32001 ft 477 kts 135°
2026-04-25 01:58 37.07580 21.01127 32000 ft 476 kts 135°
2026-04-25 01:58 37.02766 21.06810 32001 ft 475 kts 135°
2026-04-25 01:59 36.97972 21.12458 32000 ft 474 kts 135°
2026-04-25 01:59 36.93165 21.18107 32000 ft 474 kts 135°
2026-04-25 02:00 36.88370 21.23739 31997 ft 473 kts 136°
2026-04-25 02:00 36.83571 21.29359 31992 ft 472 kts 136°
2026-04-25 02:01 36.78785 21.34957 31996 ft 471 kts 136°
2026-04-25 02:01 36.74008 21.40533 31991 ft 470 kts 136°
2026-04-25 02:02 36.69243 21.46088 31990 ft 468 kts 136°
2026-04-25 02:02 36.64487 21.51622 31997 ft 467 kts 136°
2026-04-25 02:03 36.59745 21.57130 31988 ft 465 kts 136°
2026-04-25 02:03 36.55016 21.62609 31992 ft 464 kts 136°
2026-04-25 02:04 36.50297 21.68070 31994 ft 463 kts 137°
2026-04-25 02:04 36.45591 21.73507 31988 ft 462 kts 137°
2026-04-25 02:05 36.40889 21.78930 31997 ft 461 kts 137°
2026-04-25 02:05 36.36191 21.84338 31986 ft 459 kts 137°
2026-04-25 02:06 36.31516 21.89706 31991 ft 457 kts 137°
2026-04-25 02:06 36.26868 21.95046 31996 ft 455 kts 137°
2026-04-25 02:07 36.22299 22.00279 31984 ft 455 kts 137°
2026-04-25 02:07 36.17646 22.05603 31984 ft 455 kts 137°
2026-04-25 02:08 36.12990 22.10918 31984 ft 456 kts 137°
2026-04-25 02:08 36.08359 22.16201 31981 ft 456 kts 137°
2026-04-25 02:09 36.03688 22.21505 31982 ft 456 kts 137°
2026-04-25 02:09 35.99026 22.26789 31975 ft 456 kts 138°
2026-04-25 02:10 35.94353 22.32099 31973 ft 457 kts 138°
2026-04-25 02:10 35.89668 22.37398 31974 ft 458 kts 138°
2026-04-25 02:11 35.84975 22.42706 31969 ft 458 kts 138°
2026-04-25 02:11 35.80264 22.48017 31966 ft 459 kts 138°
2026-04-25 02:12 35.75542 22.53335 31960 ft 460 kts 139°
2026-04-25 02:12 35.70805 22.58657 31965 ft 462 kts 139°
2026-04-25 02:13 35.66049 22.63988 31955 ft 463 kts 139°
2026-04-25 02:13 35.61290 22.69332 31952 ft 464 kts 139°
2026-04-25 02:14 35.56510 22.74681 31951 ft 465 kts 139°
2026-04-25 02:14 35.51720 22.80027 31947 ft 466 kts 139°
2026-04-25 02:15 35.46949 22.85352 31933 ft 467 kts 140°
2026-04-25 02:15 35.42134 22.90708 31947 ft 468 kts 140°
2026-04-25 02:16 35.37309 22.96071 31939 ft 469 kts 140°
2026-04-25 02:16 35.32565 23.01330 31930 ft 469 kts 140°
2026-04-25 02:17 35.27726 23.06688 31929 ft 469 kts 140°
2026-04-25 02:17 35.22884 23.12044 31923 ft 469 kts 140°
2026-04-25 02:18 35.18043 23.17387 31923 ft 469 kts 140°
2026-04-25 02:18 35.13193 23.22732 31922 ft 469 kts 140°
2026-04-25 02:19 35.08339 23.28067 31921 ft 470 kts 141°
2026-04-25 02:19 35.03481 23.33405 31926 ft 470 kts 141°
2026-04-25 02:20 34.98629 23.38725 31931 ft 470 kts 141°
2026-04-25 02:20 34.93754 23.44061 31919 ft 471 kts 141°
2026-04-25 02:21 34.88879 23.49389 31912 ft 471 kts 141°
2026-04-25 02:21 34.83998 23.54712 31917 ft 471 kts 141°
2026-04-25 02:22 34.79121 23.60020 31915 ft 470 kts 141°
2026-04-25 02:22 34.74246 23.65324 31915 ft 470 kts 141°
2026-04-25 02:23 34.69367 23.70622 31914 ft 470 kts 141°
2026-04-25 02:23 34.64491 23.75908 31913 ft 470 kts 142°
2026-04-25 02:24 34.59619 23.81178 31916 ft 469 kts 142°
2026-04-25 02:24 34.54771 23.86411 31918 ft 469 kts 142°
2026-04-25 02:25 34.49891 23.91675 31915 ft 469 kts 142°
2026-04-25 02:25 34.45015 23.96930 31916 ft 469 kts 142°
2026-04-25 02:26 34.40216 24.02085 31914 ft 469 kts 142°
2026-04-25 02:26 34.35334 24.07323 31924 ft 469 kts 142°
2026-04-25 02:27 34.30451 24.12553 31915 ft 469 kts 142°
2026-04-25 02:27 34.25571 24.17776 31914 ft 468 kts 142°
2026-04-25 02:28 34.20689 24.22989 31925 ft 468 kts 142°
2026-04-25 02:28 34.15808 24.28195 31925 ft 468 kts 142°
2026-04-25 02:29 34.10927 24.33393 31923 ft 468 kts 142°
2026-04-25 02:29 34.06038 24.38590 31921 ft 469 kts 142°
2026-04-25 02:30 34.01145 24.43785 31913 ft 469 kts 142°
2026-04-25 02:30 33.96218 24.48911 31911 ft 469 kts 144°
2026-04-25 02:31 33.91215 24.53967 31919 ft 470 kts 144°
2026-04-25 02:31 33.86192 24.59031 31916 ft 472 kts 144°
2026-04-25 02:32 33.81158 24.64119 31915 ft 473 kts 144°
2026-04-25 02:32 33.76109 24.69225 31916 ft 475 kts 144°
2026-04-25 02:33 33.71045 24.74340 31918 ft 476 kts 144°
2026-04-25 02:33 33.65969 24.79460 31914 ft 477 kts 144°
2026-04-25 02:34 33.60882 24.84582 31913 ft 478 kts 144°
2026-04-25 02:34 33.55786 24.89706 31913 ft 479 kts 144°
2026-04-25 02:35 33.50709 24.94801 31912 ft 480 kts 144°
2026-04-25 02:35 33.45551 24.99967 31907 ft 480 kts 144°
2026-04-25 02:36 33.40506 25.05013 31907 ft 481 kts 144°
2026-04-25 02:36 33.35365 25.10146 31907 ft 482 kts 144°
2026-04-25 02:37 33.30214 25.15285 31908 ft 482 kts 144°
2026-04-25 02:37 33.25095 25.20383 31895 ft 483 kts 145°
2026-04-25 02:38 33.19923 25.25522 31888 ft 484 kts 145°
2026-04-25 02:38 33.14744 25.30660 31880 ft 484 kts 145°
2026-04-25 02:39 33.09557 25.35799 31882 ft 485 kts 145°
2026-04-25 02:39 33.04362 25.40940 31880 ft 485 kts 145°
2026-04-25 02:40 32.99178 25.46061 31874 ft 486 kts 145°
2026-04-25 02:40 32.93963 25.51202 31872 ft 487 kts 145°
2026-04-25 02:41 32.88738 25.56351 31872 ft 488 kts 145°
2026-04-25 02:41 32.83501 25.61498 31873 ft 489 kts 145°
2026-04-25 02:42 32.78248 25.66654 31855 ft 490 kts 145°
2026-04-25 02:42 32.72978 25.71815 31863 ft 492 kts 145°
2026-04-25 02:43 32.68590 25.76109 31855 ft 493 kts 145°
2026-04-25 02:43 32.63294 25.81290 31845 ft 494 kts 146°
2026-04-25 02:44 32.57983 25.86468 31848 ft 495 kts 146°
2026-04-25 02:44 32.52657 25.91652 31841 ft 495 kts 146°
2026-04-25 02:45 32.47327 25.96837 31836 ft 496 kts 146°
2026-04-25 02:45 32.42042 26.01968 31834 ft 497 kts 146°
2026-04-25 02:46 32.36688 26.07158 31833 ft 498 kts 146°
2026-04-25 02:46 32.31330 26.12343 31834 ft 498 kts 146°
2026-04-25 02:47 32.25965 26.17527 31832 ft 498 kts 146°
2026-04-25 02:47 32.20601 26.22703 31823 ft 498 kts 146°
2026-04-25 02:48 32.15228 26.27878 31823 ft 498 kts 146°
2026-04-25 02:48 32.09856 26.33047 31826 ft 498 kts 146°
2026-04-25 02:49 32.04488 26.38205 31822 ft 497 kts 146°
2026-04-25 02:49 31.99132 26.43336 31814 ft 497 kts 146°
2026-04-25 02:50 31.93768 26.48471 31814 ft 497 kts 146°
2026-04-25 02:50 31.88396 26.53604 31816 ft 497 kts 146°
2026-04-25 02:51 31.83056 26.58702 31816 ft 497 kts 146°
2026-04-25 02:51 31.77645 26.63859 31810 ft 498 kts 146°
2026-04-25 02:52 31.72296 26.68945 31805 ft 498 kts 147°
2026-04-25 02:52 31.66918 26.74058 31800 ft 497 kts 147°
2026-04-25 02:53 31.61543 26.79151 31807 ft 497 kts 147°
2026-04-25 02:53 31.56169 26.84243 31807 ft 497 kts 147°
2026-04-25 02:54 31.50758 26.89359 31807 ft 496 kts 147°
2026-04-25 02:54 31.45430 26.94390 31804 ft 495 kts 147°
2026-04-25 02:55 31.40062 26.99453 31805 ft 495 kts 147°
2026-04-25 02:55 31.34769 27.04433 31803 ft 495 kts 147°
2026-04-25 02:56 31.29402 27.09475 31809 ft 495 kts 147°
2026-04-25 02:56 31.24034 27.14514 31807 ft 495 kts 147°
2026-04-25 02:57 31.18665 27.19546 31808 ft 495 kts 147°
2026-04-25 02:57 31.13293 27.24572 31805 ft 495 kts 147°
2026-04-25 02:58 31.07919 27.29592 31811 ft 495 kts 147°
2026-04-25 02:58 31.02543 27.34607 31804 ft 495 kts 147°
2026-04-25 02:59 30.97161 27.39619 31803 ft 496 kts 147°
2026-04-25 02:59 30.91766 27.44635 31811 ft 496 kts 147°
2026-04-25 03:00 30.86368 27.49654 31801 ft 496 kts 147°
2026-04-25 03:00 30.80959 27.54666 31803 ft 497 kts 147°
2026-04-25 03:01 30.75542 27.59681 31805 ft 498 kts 147°
2026-04-25 03:01 30.70118 27.64698 31805 ft 499 kts 147°
2026-04-25 03:02 30.64682 27.69719 31808 ft 499 kts 147°
2026-04-25 03:02 30.59239 27.74737 31805 ft 500 kts 147°
2026-04-25 03:03 30.53786 27.79753 31807 ft 500 kts 147°
2026-04-25 03:03 30.48330 27.84769 31803 ft 501 kts 147°
2026-04-25 03:04 30.42860 27.89791 31806 ft 502 kts 147°
2026-04-25 03:04 30.37380 27.94812 31798 ft 502 kts 147°
2026-04-25 03:05 30.29224 28.02275 31804 ft 503 kts 147°
2026-04-25 03:05 30.23767 28.07256 31805 ft 503 kts 147°
2026-04-25 03:06 30.18276 28.12261 31809 ft 503 kts 147°
2026-04-25 03:06 30.12785 28.17262 31802 ft 503 kts 147°
2026-04-25 03:07 30.07293 28.22257 31809 ft 503 kts 147°
2026-04-25 03:07 30.01800 28.27248 31807 ft 503 kts 147°
2026-04-25 03:08 29.96297 28.32230 31797 ft 503 kts 147°
2026-04-25 03:08 29.90799 28.37212 31804 ft 503 kts 147°
2026-04-25 03:09 29.85551 28.42603 31822 ft 510 kts 138°
2026-04-25 03:09 29.81080 28.49011 31823 ft 514 kts 131°
2026-04-25 03:10 29.76771 28.55593 31824 ft 514 kts 131°
2026-04-25 03:10 29.72436 28.62136 31825 ft 514 kts 132°
2026-04-25 03:11 29.68062 28.68661 31825 ft 515 kts 132°
2026-04-25 03:11 29.63685 28.75172 31824 ft 515 kts 132°
2026-04-25 03:12 29.59306 28.81677 31826 ft 515 kts 133°
2026-04-25 03:12 29.54925 28.88174 31823 ft 514 kts 133°
2026-04-25 03:13 29.50543 28.94670 31828 ft 514 kts 132°
2026-04-25 03:13 29.46209 29.01086 31835 ft 514 kts 133°
2026-04-25 03:14 29.41624 29.07344 31829 ft 509 kts 140°
2026-04-25 03:14 29.36270 29.12525 31861 ft 501 kts 149°
2026-04-25 03:15 29.30659 29.17270 31866 ft 502 kts 149°
2026-04-25 03:15 29.25067 29.22063 31860 ft 502 kts 148°
2026-04-25 03:16 29.19486 29.26887 31862 ft 503 kts 148°
2026-04-25 03:16 29.13899 29.31708 31865 ft 503 kts 148°
2026-04-25 03:17 29.08279 29.36482 31873 ft 503 kts 149°
2026-04-25 03:17 29.02650 29.41143 31868 ft 503 kts 149°
2026-04-25 03:18 28.96973 29.45833 31868 ft 504 kts 149°
2026-04-25 03:18 28.91294 29.50534 31871 ft 504 kts 149°
2026-04-25 03:19 28.85620 29.55240 31876 ft 504 kts 149°
2026-04-25 03:19 28.79947 29.59938 31877 ft 504 kts 149°
2026-04-25 03:20 28.74270 29.64629 31881 ft 504 kts 149°
2026-04-25 03:20 28.68589 29.69319 31883 ft 504 kts 149°
2026-04-25 03:21 28.62901 29.74009 31889 ft 505 kts 149°
2026-04-25 03:21 28.57212 29.78693 31889 ft 505 kts 149°
2026-04-25 03:22 28.51514 29.83370 31891 ft 505 kts 149°
2026-04-25 03:22 28.45811 29.88051 31891 ft 506 kts 149°
2026-04-25 03:23 28.40099 29.92736 31894 ft 506 kts 149°
2026-04-25 03:23 28.34387 29.97412 31902 ft 507 kts 149°
2026-04-25 03:24 28.28739 30.02028 31903 ft 507 kts 149°
2026-04-25 03:24 28.23016 30.06702 31906 ft 507 kts 150°
2026-04-25 03:25 28.17287 30.11373 31907 ft 507 kts 150°
2026-04-25 03:25 28.11553 30.16041 31911 ft 508 kts 150°
2026-04-25 03:26 28.05814 30.20708 31920 ft 507 kts 150°
2026-04-25 03:26 28.00080 30.25368 31913 ft 507 kts 150°
2026-04-25 03:27 27.94353 30.30012 31913 ft 507 kts 150°
2026-04-25 03:27 27.88620 30.34653 31921 ft 507 kts 150°
2026-04-25 03:28 27.82917 30.39264 31918 ft 508 kts 150°
2026-04-25 03:28 27.77164 30.43910 31935 ft 509 kts 150°
2026-04-25 03:29 27.71399 30.48560 31928 ft 510 kts 150°
2026-04-25 03:29 27.65623 30.53212 31921 ft 511 kts 150°
2026-04-25 03:30 27.60774 30.57115 31934 ft 511 kts 150°
2026-04-25 03:30 27.55023 30.61739 31926 ft 512 kts 150°
2026-04-25 03:31 27.49223 30.66394 31935 ft 512 kts 151°
2026-04-25 03:31 27.43412 30.71049 31925 ft 513 kts 151°
2026-04-25 03:32 27.37591 30.75709 31937 ft 513 kts 151°
2026-04-25 03:32 27.31771 30.80363 31932 ft 514 kts 151°
2026-04-25 03:33 27.25938 30.85022 31944 ft 515 kts 151°
2026-04-25 03:33 27.20093 30.89682 31949 ft 516 kts 151°
2026-04-25 03:34 27.14231 30.94350 31932 ft 517 kts 151°
2026-04-25 03:34 27.08365 30.99017 31927 ft 517 kts 151°
2026-04-25 03:35 27.02781 31.04012 31946 ft 526 kts 142°
2026-04-25 03:35 26.97874 31.10181 31954 ft 533 kts 134°
2026-04-25 03:36 26.93244 31.16685 31948 ft 533 kts 134°
2026-04-25 03:36 26.88599 31.23169 31936 ft 534 kts 135°
2026-04-25 03:37 26.83912 31.29629 31928 ft 534 kts 135°
2026-04-25 03:37 26.79209 31.36072 31936 ft 534 kts 135°
2026-04-25 03:38 26.74506 31.42510 31931 ft 534 kts 135°
2026-04-25 03:38 26.69802 31.48953 31922 ft 535 kts 135°
2026-04-25 03:39 26.65083 31.55399 31927 ft 536 kts 135°
2026-04-25 03:39 26.60354 31.61851 31922 ft 537 kts 135°
2026-04-25 03:40 26.55609 31.68312 31921 ft 538 kts 136°
2026-04-25 03:40 26.50854 31.74782 31910 ft 540 kts 136°
2026-04-25 03:41 26.46116 31.81223 31906 ft 540 kts 136°
2026-04-25 03:41 26.41340 31.87704 31908 ft 541 kts 136°
2026-04-25 03:42 26.36555 31.94186 31890 ft 541 kts 136°
2026-04-25 03:42 26.31830 32.00576 31887 ft 542 kts 136°
2026-04-25 03:43 26.27039 32.07049 31882 ft 541 kts 136°
2026-04-25 03:43 26.22243 32.13520 31877 ft 541 kts 136°
2026-04-25 03:44 26.17445 32.19982 31882 ft 542 kts 136°
2026-04-25 03:44 26.12637 32.26449 31873 ft 542 kts 136°
2026-04-25 03:45 26.07828 32.32909 31868 ft 542 kts 136°
2026-04-25 03:45 26.03024 32.39353 31869 ft 541 kts 136°
2026-04-25 03:46 25.98218 32.45789 31859 ft 541 kts 136°
2026-04-25 03:46 25.93410 32.52219 31863 ft 541 kts 137°
2026-04-25 03:47 25.88600 32.58645 31857 ft 541 kts 137°
2026-04-25 03:47 25.83782 32.65072 31856 ft 542 kts 137°
2026-04-25 03:48 25.78952 32.71508 31860 ft 543 kts 137°
2026-04-25 03:48 25.74208 32.77959 31866 ft 547 kts 133°
2026-04-25 03:49 25.69948 32.85003 31868 ft 551 kts 129°
2026-04-25 03:49 25.65742 32.92182 31865 ft 552 kts 129°
2026-04-25 03:50 25.61566 32.99249 31856 ft 552 kts 130°
2026-04-25 03:50 25.57380 33.06257 31859 ft 552 kts 130°
2026-04-25 03:51 25.53108 33.13376 31861 ft 551 kts 130°
2026-04-25 03:51 25.48899 33.20387 31863 ft 550 kts 130°
2026-04-25 03:52 25.44668 33.27426 31862 ft 549 kts 130°
2026-04-25 03:52 25.40437 33.34449 31856 ft 549 kts 130°
2026-04-25 03:53 25.36203 33.41478 31852 ft 549 kts 130°
2026-04-25 03:53 25.31964 33.48497 31853 ft 549 kts 130°
2026-04-25 03:54 25.27715 33.55525 31856 ft 550 kts 130°
2026-04-25 03:54 25.23460 33.62553 31853 ft 551 kts 130°
2026-04-25 03:55 25.19194 33.69589 31835 ft 551 kts 131°
2026-04-25 03:55 25.14927 33.76612 31858 ft 551 kts 131°
2026-04-25 03:56 25.10654 33.83634 31835 ft 552 kts 131°
2026-04-25 03:56 25.06376 33.90664 31852 ft 552 kts 131°
2026-04-25 03:57 25.02119 33.97645 31836 ft 552 kts 131°
2026-04-25 03:57 24.97863 34.04612 31858 ft 552 kts 131°
2026-04-25 03:58 24.93595 34.11585 31856 ft 552 kts 131°
2026-04-25 03:58 24.89294 34.18606 31851 ft 553 kts 131°
2026-04-25 03:59 24.84981 34.25627 31861 ft 554 kts 131°
2026-04-25 03:59 24.80665 34.32663 31835 ft 555 kts 131°
2026-04-25 04:00 24.76341 34.39695 31865 ft 555 kts 131°
2026-04-25 04:00 24.71996 34.46736 31855 ft 556 kts 131°
2026-04-25 04:01 24.67652 34.53777 31834 ft 556 kts 131°
2026-04-25 04:01 24.63310 34.60806 31848 ft 555 kts 131°
2026-04-25 04:02 24.58968 34.67817 31866 ft 555 kts 131°
2026-04-25 04:02 24.54623 34.74826 31855 ft 555 kts 131°
2026-04-25 04:03 24.50275 34.81832 31836 ft 555 kts 131°
2026-04-25 04:03 24.45925 34.88829 31859 ft 555 kts 131°
2026-04-25 04:04 24.41573 34.95825 31855 ft 555 kts 131°
2026-04-25 04:04 24.37267 35.02718 31852 ft 555 kts 131°
2026-04-25 04:05 24.32914 35.09698 31854 ft 555 kts 131°
2026-04-25 04:05 24.28561 35.16671 31858 ft 554 kts 131°
2026-04-25 04:06 24.24198 35.23637 31832 ft 554 kts 131°
2026-04-25 04:06 24.19838 35.30595 31854 ft 553 kts 131°
2026-04-25 04:07 24.15473 35.37541 31863 ft 554 kts 131°
2026-04-25 04:07 24.11098 35.44498 31857 ft 555 kts 131°
2026-04-25 04:08 24.06723 35.51454 31857 ft 555 kts 131°
2026-04-25 04:08 24.02344 35.58401 31855 ft 555 kts 131°
2026-04-25 04:09 23.97961 35.65341 31833 ft 555 kts 131°
2026-04-25 04:09 23.93575 35.72273 31846 ft 554 kts 131°
2026-04-25 04:10 23.89194 35.79204 31836 ft 554 kts 131°
2026-04-25 04:10 23.84814 35.86114 31845 ft 554 kts 131°
2026-04-25 04:11 23.78230 35.96479 31856 ft 553 kts 132°
2026-04-25 04:12 23.73896 36.03288 31819 ft 553 kts 132°
2026-04-25 04:12 23.69507 36.10175 31821 ft 553 kts 132°
2026-04-25 04:13 23.65112 36.17065 31815 ft 553 kts 131°
2026-04-25 04:13 23.60718 36.23949 31816 ft 553 kts 132°
2026-04-25 04:14 23.56317 36.30819 31814 ft 552 kts 132°
2026-04-25 04:14 23.51916 36.37686 31815 ft 553 kts 132°
2026-04-25 04:15 23.47521 36.44556 31816 ft 553 kts 132°
2026-04-25 04:15 23.43862 36.50258 31808 ft 552 kts 132°
2026-04-25 04:16 23.39462 36.57099 31801 ft 551 kts 132°
2026-04-25 04:16 23.35070 36.63925 31807 ft 550 kts 132°
2026-04-25 04:17 23.30677 36.70737 31805 ft 550 kts 132°
2026-04-25 04:17 23.26286 36.77536 31805 ft 549 kts 132°
2026-04-25 04:18 23.21898 36.84324 31806 ft 548 kts 132°
2026-04-25 04:18 23.17507 36.91107 31806 ft 549 kts 131°
2026-04-25 04:19 23.13114 36.97883 31809 ft 549 kts 132°
2026-04-25 04:19 23.08779 37.04564 31804 ft 549 kts 132°
2026-04-25 04:20 23.04382 37.11335 31805 ft 549 kts 132°
2026-04-25 04:20 22.99980 37.18101 31808 ft 549 kts 132°
2026-04-25 04:21 22.95569 37.24867 31807 ft 549 kts 132°
2026-04-25 04:21 22.91159 37.31627 31805 ft 549 kts 132°
2026-04-25 04:22 22.86747 37.38387 31807 ft 549 kts 132°
2026-04-25 04:22 22.82335 37.45135 31803 ft 549 kts 132°
2026-04-25 04:23 22.77920 37.51874 31807 ft 548 kts 132°
2026-04-25 04:23 22.73504 37.58609 31802 ft 548 kts 132°
2026-04-25 04:24 22.69079 37.65348 31806 ft 549 kts 131°
2026-04-25 04:24 22.64653 37.72083 31809 ft 549 kts 132°
2026-04-25 04:25 22.60222 37.78813 31809 ft 549 kts 132°
2026-04-25 04:25 22.55793 37.85534 31815 ft 549 kts 132°
2026-04-25 04:26 22.51353 37.92260 31815 ft 549 kts 131°
2026-04-25 04:26 22.46913 37.98980 31815 ft 550 kts 132°
2026-04-25 04:27 22.42530 38.05609 31821 ft 550 kts 131°
2026-04-25 04:27 22.38079 38.12325 31818 ft 549 kts 131°
2026-04-25 04:28 22.33635 38.19030 31830 ft 549 kts 131°
2026-04-25 04:28 22.29187 38.25725 31834 ft 548 kts 131°
2026-04-25 04:29 22.24737 38.32412 31833 ft 549 kts 132°
2026-04-25 04:29 22.20285 38.39102 31834 ft 548 kts 131°
2026-04-25 04:30 22.15843 38.45772 31832 ft 547 kts 132°
2026-04-25 04:30 22.11398 38.52434 31834 ft 546 kts 132°
2026-04-25 04:31 22.06954 38.59082 31835 ft 546 kts 132°
2026-04-25 04:31 22.02545 38.65669 31832 ft 545 kts 132°
2026-04-25 04:32 21.98120 38.72278 31834 ft 544 kts 131°
2026-04-25 04:32 21.93689 38.78883 31833 ft 543 kts 131°
2026-04-25 04:33 21.89270 38.85467 31833 ft 542 kts 131°
2026-04-25 04:33 21.84858 38.92029 31835 ft 540 kts 131°
2026-04-25 04:34 21.80459 38.98568 31829 ft 539 kts 131°
2026-04-25 04:34 21.76127 39.04994 31832 ft 537 kts 131°
2026-04-25 04:34 21.73770 39.08050 31819 ft 523 kts 144°
2026-04-25 04:35 21.70866 39.10258 31847 ft 505 kts 161°
2026-04-25 04:35 21.67633 39.11614 31835 ft 495 kts 172°
2026-04-25 04:35 21.64273 39.12266 31834 ft 486 kts 184°
2026-04-25 04:36 21.57597 39.12044 31831 ft 483 kts 189°
2026-04-25 04:36 21.50846 39.11793 31833 ft 488 kts 188°
2026-04-25 04:37 21.44108 39.11612 31822 ft 480 kts 188°
2026-04-25 04:37 21.37440 39.11450 31834 ft 481 kts 188°
2026-04-25 04:38 21.30739 39.11281 31831 ft 483 kts 188°
2026-04-25 04:38 21.24014 39.11114 31851 ft 484 kts 188°
2026-04-25 04:39 21.17270 39.10950 31834 ft 485 kts 188°
2026-04-25 04:39 21.10518 39.10784 31849 ft 485 kts 188°
2026-04-25 04:40 21.03761 39.10613 31850 ft 485 kts 188°
2026-04-25 04:40 20.97017 39.10446 31848 ft 485 kts 188°
2026-04-25 04:41 20.90270 39.10279 31858 ft 485 kts 188°
2026-04-25 04:41 20.83517 39.10113 31860 ft 485 kts 188°
2026-04-25 04:42 20.76764 39.09944 31867 ft 486 kts 188°
2026-04-25 04:42 20.70003 39.09777 31869 ft 486 kts 187°
2026-04-25 04:43 20.63278 39.09606 31882 ft 487 kts 188°
2026-04-25 04:43 20.56450 39.09432 31883 ft 488 kts 188°
2026-04-25 04:44 20.49700 39.09258 31890 ft 489 kts 188°
2026-04-25 04:44 20.42899 39.09085 31897 ft 489 kts 187°
2026-04-25 04:45 20.36096 39.08912 31905 ft 489 kts 187°
2026-04-25 04:45 20.29240 39.08740 31906 ft 490 kts 187°
2026-04-25 04:46 20.22406 39.08566 31879 ft 491 kts 187°
2026-04-25 04:46 20.15620 39.08394 31870 ft 491 kts 187°
2026-04-25 04:47 20.08795 39.08220 31875 ft 491 kts 187°
2026-04-25 04:47 20.01972 39.08048 31877 ft 490 kts 187°
2026-04-25 04:48 19.95154 39.07876 31881 ft 491 kts 187°
2026-04-25 04:48 19.88324 39.07703 31898 ft 492 kts 187°
2026-04-25 04:49 19.81468 39.07531 31911 ft 493 kts 187°
2026-04-25 04:49 19.74598 39.07357 31916 ft 495 kts 187°
2026-04-25 04:50 19.67709 39.07181 31917 ft 496 kts 187°
2026-04-25 04:50 19.60814 39.07010 31932 ft 496 kts 187°
2026-04-25 04:51 19.53916 39.06838 31935 ft 495 kts 187°
2026-04-25 04:51 19.47028 39.06663 31940 ft 495 kts 187°
2026-04-25 04:52 19.40152 39.06492 31949 ft 494 kts 187°
2026-04-25 04:52 19.33275 39.06318 31948 ft 494 kts 187°
2026-04-25 04:53 19.26401 39.06145 31955 ft 494 kts 187°
2026-04-25 04:53 19.19527 39.05974 31964 ft 494 kts 187°
2026-04-25 04:54 19.12651 39.05802 31968 ft 494 kts 187°
2026-04-25 04:54 19.05791 39.05489 31970 ft 493 kts 188°
2026-04-25 04:55 18.98942 39.05071 31979 ft 494 kts 188°
2026-04-25 04:55 18.92074 39.04662 31988 ft 495 kts 188°
2026-04-25 04:56 18.85201 39.04274 31997 ft 495 kts 188°
2026-04-25 04:56 18.78317 39.03895 32000 ft 496 kts 188°
2026-04-25 04:57 18.71425 39.03514 32000 ft 496 kts 188°
2026-04-25 04:57 18.64526 39.03132 32012 ft 497 kts 188°
2026-04-25 04:58 18.57627 39.02751 32010 ft 497 kts 188°
2026-04-25 04:58 18.51892 39.02436 32027 ft 496 kts 188°
2026-04-25 04:59 18.45010 39.02056 32128 ft 494 kts 188°
2026-04-25 04:59 18.38144 39.01677 32170 ft 495 kts 188°
2026-04-25 05:00 18.31251 39.01295 32177 ft 496 kts 188°
2026-04-25 05:00 18.24355 39.00915 32183 ft 497 kts 188°
2026-04-25 05:01 18.17440 39.00535 32139 ft 499 kts 188°
2026-04-25 05:01 18.10481 39.00227 32043 ft 501 kts 187°
2026-04-25 05:02 18.03521 38.99997 32030 ft 499 kts 187°
2026-04-25 05:02 17.96597 38.99764 32021 ft 497 kts 186°
2026-04-25 05:03 17.89686 38.99514 32024 ft 496 kts 187°
2026-04-25 05:03 17.82789 38.99260 32029 ft 496 kts 186°
2026-04-25 05:04 17.75885 38.99006 32022 ft 497 kts 186°
2026-04-25 05:04 17.68964 38.98754 32027 ft 498 kts 186°
2026-04-25 05:05 17.62033 38.98502 32061 ft 499 kts 186°
2026-04-25 05:05 17.55091 38.98250 32067 ft 500 kts 186°
2026-04-25 05:06 17.48140 38.97998 32064 ft 500 kts 186°
2026-04-25 05:06 17.41184 38.97745 32067 ft 500 kts 186°
2026-04-25 05:07 17.34232 38.97492 32063 ft 500 kts 186°
2026-04-25 05:07 17.27278 38.97240 32065 ft 500 kts 186°
2026-04-25 05:08 17.20323 38.96988 32066 ft 500 kts 186°
2026-04-25 05:08 17.13374 38.96737 32063 ft 500 kts 186°
2026-04-25 05:09 17.06469 38.96486 32063 ft 499 kts 186°
2026-04-25 05:09 16.99530 38.96235 32069 ft 499 kts 186°
2026-04-25 05:10 16.92589 38.95985 32063 ft 499 kts 186°
2026-04-25 05:10 16.85649 38.95733 32047 ft 499 kts 186°
2026-04-25 05:11 16.78685 38.95481 31949 ft 501 kts 186°
2026-04-25 05:11 16.71724 38.95232 31934 ft 500 kts 186°
2026-04-25 05:12 16.61301 38.94857 31946 ft 499 kts 186°
2026-04-25 05:12 16.54365 38.94608 31948 ft 499 kts 186°
2026-04-25 05:13 16.47428 38.94356 31944 ft 499 kts 186°
2026-04-25 05:13 16.40491 38.94107 31935 ft 499 kts 186°
2026-04-25 05:14 16.33549 38.93857 31952 ft 499 kts 186°
2026-04-25 05:15 16.23130 38.93484 31954 ft 500 kts 186°
2026-04-25 05:15 16.16181 38.93235 31952 ft 500 kts 186°
2026-04-25 05:16 16.09229 38.92984 31954 ft 500 kts 186°
2026-04-25 05:16 16.02269 38.92732 31956 ft 500 kts 186°
2026-04-25 05:17 15.95321 38.92486 31962 ft 500 kts 186°
2026-04-25 05:17 15.88360 38.92239 31966 ft 501 kts 185°
2026-04-25 05:18 15.81391 38.91988 31966 ft 501 kts 185°
2026-04-25 05:18 15.74415 38.91740 31963 ft 502 kts 186°
2026-04-25 05:19 15.67433 38.91491 31964 ft 502 kts 185°
2026-04-25 05:19 15.60447 38.91242 31975 ft 502 kts 185°
2026-04-25 05:20 15.53462 38.90993 31969 ft 502 kts 185°
2026-04-25 05:20 15.46519 38.90744 31971 ft 503 kts 185°
2026-04-25 05:21 15.39532 38.90496 31970 ft 503 kts 185°
2026-04-25 05:21 15.32541 38.90319 31974 ft 504 kts 180°
2026-04-25 05:22 15.25627 38.91730 31983 ft 512 kts 164°
2026-04-25 05:22 15.19160 38.94913 31993 ft 517 kts 155°
2026-04-25 05:23 15.12824 38.98462 31980 ft 518 kts 155°
2026-04-25 05:23 15.06461 39.01968 31991 ft 518 kts 155°
2026-04-25 05:24 15.00072 39.05427 31987 ft 519 kts 155°
2026-04-25 05:24 14.93678 39.08871 31989 ft 518 kts 155°
2026-04-25 05:25 14.87281 39.12317 31986 ft 518 kts 155°
2026-04-25 05:25 14.80890 39.15762 31997 ft 518 kts 155°
2026-04-25 05:26 14.74495 39.19208 31988 ft 518 kts 155°
2026-04-25 05:26 14.68108 39.22647 31997 ft 518 kts 155°
2026-04-25 05:27 14.61719 39.26083 31998 ft 518 kts 155°
2026-04-25 05:27 14.55327 39.29523 32000 ft 518 kts 155°
2026-04-25 05:28 14.48933 39.32958 32002 ft 518 kts 155°
2026-04-25 05:28 14.42541 39.36395 31996 ft 518 kts 155°
2026-04-25 05:29 14.36151 39.39828 32002 ft 518 kts 155°
2026-04-25 05:29 14.29751 39.43265 32006 ft 519 kts 155°
2026-04-25 05:30 14.23391 39.46679 32006 ft 518 kts 155°
2026-04-25 05:30 14.17002 39.50105 32018 ft 518 kts 155°
2026-04-25 05:31 14.10613 39.53535 32010 ft 518 kts 155°
2026-04-25 05:31 14.04223 39.56963 32021 ft 518 kts 155°
2026-04-25 05:32 13.97822 39.60385 32022 ft 519 kts 155°
2026-04-25 05:32 13.91412 39.63815 32014 ft 520 kts 155°
2026-04-25 05:33 13.85000 39.67249 32019 ft 520 kts 155°
2026-04-25 05:33 13.78575 39.70680 32027 ft 520 kts 155°
2026-04-25 05:34 13.72163 39.74103 32034 ft 519 kts 155°
2026-04-25 05:34 13.65752 39.77527 32028 ft 519 kts 155°
2026-04-25 05:35 13.59343 39.80950 32034 ft 519 kts 155°
2026-04-25 05:35 13.52932 39.84367 32042 ft 519 kts 155°
2026-04-25 05:36 13.46526 39.87779 32039 ft 519 kts 155°
2026-04-25 05:36 13.40111 39.91196 32047 ft 519 kts 155°
2026-04-25 05:37 13.33701 39.94608 32045 ft 519 kts 155°
2026-04-25 05:37 13.27284 39.98023 32044 ft 519 kts 155°
2026-04-25 05:38 13.20962 40.01382 32057 ft 519 kts 155°
2026-04-25 05:38 13.14544 40.04791 32054 ft 520 kts 154°
2026-04-25 05:39 13.08115 40.08204 32058 ft 521 kts 154°
2026-04-25 05:39 13.01678 40.11622 32065 ft 521 kts 154°
2026-04-25 05:40 12.95246 40.15034 32068 ft 521 kts 154°
2026-04-25 05:40 12.88800 40.18450 32062 ft 522 kts 154°
2026-04-25 05:41 12.82353 40.21865 32073 ft 522 kts 154°
2026-04-25 05:41 12.75949 40.25255 32074 ft 522 kts 154°
2026-04-25 05:42 12.69502 40.28668 32073 ft 521 kts 154°
2026-04-25 05:42 12.63057 40.32075 32129 ft 521 kts 154°
2026-04-25 05:43 12.56613 40.35480 32123 ft 521 kts 154°
2026-04-25 05:43 12.50166 40.38889 32132 ft 522 kts 154°
2026-04-25 05:44 12.43708 40.42291 32133 ft 522 kts 154°
2026-04-25 05:44 12.37216 40.45631 32127 ft 522 kts 155°
2026-04-25 05:45 12.30721 40.48954 32143 ft 522 kts 155°
2026-04-25 05:45 12.25321 40.51721 32137 ft 522 kts 154°
2026-04-25 05:46 12.18833 40.55054 32141 ft 522 kts 155°
2026-04-25 05:46 12.12346 40.58383 32153 ft 521 kts 155°
2026-04-25 05:47 12.05864 40.61711 32155 ft 521 kts 154°
2026-04-25 05:47 11.99345 40.65056 32160 ft 521 kts 155°
2026-04-25 05:48 11.92905 40.68353 32166 ft 521 kts 154°
2026-04-25 05:48 11.86419 40.71674 32164 ft 522 kts 154°
2026-04-25 05:49 11.79922 40.75002 32168 ft 523 kts 154°
2026-04-25 05:49 11.73416 40.78333 32172 ft 524 kts 154°
2026-04-25 05:50 11.66896 40.81666 32163 ft 524 kts 154°
2026-04-25 05:50 11.60368 40.85002 32168 ft 525 kts 154°
2026-04-25 05:51 11.53845 40.88334 32163 ft 524 kts 154°
2026-04-25 05:51 11.47325 40.91666 32176 ft 524 kts 154°
2026-04-25 05:52 11.40807 40.94988 32175 ft 524 kts 154°
2026-04-25 05:52 11.34289 40.98311 32179 ft 524 kts 154°
2026-04-25 05:53 11.27844 41.01597 32182 ft 524 kts 154°
2026-04-25 05:53 11.21317 41.04922 32189 ft 524 kts 154°
2026-04-25 05:54 11.14794 41.08246 32186 ft 524 kts 154°
2026-04-25 05:54 11.04996 41.13232 32194 ft 525 kts 154°
2026-04-25 05:55 10.98466 41.16553 32196 ft 525 kts 154°
2026-04-25 05:55 10.91925 41.19879 32194 ft 525 kts 154°
2026-04-25 05:56 10.85431 41.23179 32201 ft 526 kts 154°
2026-04-25 05:56 10.78883 41.26506 32191 ft 526 kts 154°
2026-04-25 05:57 10.72333 41.29830 32191 ft 526 kts 154°
2026-04-25 05:57 10.65781 41.33155 32193 ft 526 kts 154°
2026-04-25 05:58 10.59228 41.36478 32194 ft 526 kts 154°
2026-04-25 05:58 10.52678 41.39799 32188 ft 526 kts 154°
2026-04-25 05:59 10.46126 41.43117 32195 ft 526 kts 154°
2026-04-25 05:59 10.39571 41.46435 32191 ft 527 kts 154°
2026-04-25 06:00 10.33015 41.49755 32197 ft 527 kts 154°
2026-04-25 06:00 10.26446 41.53079 32191 ft 527 kts 154°
2026-04-25 06:01 10.19876 41.56403 32195 ft 527 kts 154°
2026-04-25 06:01 10.13296 41.59726 32183 ft 529 kts 154°
2026-04-25 06:02 10.06711 41.63058 32200 ft 529 kts 154°
2026-04-25 06:02 10.00132 41.66381 32214 ft 528 kts 154°
2026-04-25 06:03 9.93555 41.69698 32196 ft 528 kts 154°
2026-04-25 06:03 9.86971 41.73018 32206 ft 529 kts 154°
2026-04-25 06:04 9.80385 41.76341 32215 ft 529 kts 154°
2026-04-25 06:04 9.73800 41.79661 32200 ft 529 kts 154°
2026-04-25 06:05 9.67215 41.82981 32193 ft 528 kts 154°
2026-04-25 06:05 9.60607 41.86241 32196 ft 528 kts 156°
2026-04-25 06:06 9.53911 41.89290 32192 ft 528 kts 157°
2026-04-25 06:06 9.47204 41.92310 32190 ft 527 kts 156°
2026-04-25 06:07 9.40516 41.95354 32189 ft 527 kts 156°
2026-04-25 06:07 9.33831 41.98419 32193 ft 527 kts 156°
2026-04-25 06:08 9.27278 42.01430 32189 ft 526 kts 156°
2026-04-25 06:08 9.20603 42.04488 32194 ft 526 kts 156°
2026-04-25 06:09 9.13927 42.07547 32192 ft 527 kts 156°
2026-04-25 06:09 9.07248 42.10606 32197 ft 527 kts 156°
2026-04-25 06:10 9.00569 42.13661 32192 ft 527 kts 156°
2026-04-25 06:10 8.93897 42.16714 32181 ft 527 kts 156°
2026-04-25 06:11 8.87222 42.19767 32160 ft 526 kts 156°
2026-04-25 06:11 8.80548 42.22818 32156 ft 526 kts 156°
2026-04-25 06:12 8.73888 42.25861 32164 ft 524 kts 155°
2026-04-25 06:12 8.67300 42.28870 32164 ft 523 kts 155°
2026-04-25 06:13 8.60681 42.31891 32162 ft 522 kts 155°
2026-04-25 06:14 8.50771 42.36417 32159 ft 521 kts 155°
2026-04-25 06:14 8.44167 42.39430 32159 ft 521 kts 155°
2026-04-25 06:15 8.37555 42.42452 32159 ft 522 kts 155°
2026-04-25 06:15 8.30934 42.45484 32157 ft 523 kts 155°
2026-04-25 06:16 8.24306 42.48519 32146 ft 523 kts 155°
2026-04-25 06:16 8.17674 42.51550 32146 ft 523 kts 155°
2026-04-25 06:17 8.11039 42.54587 32146 ft 523 kts 155°
2026-04-25 06:17 8.04406 42.57620 32139 ft 524 kts 155°
2026-04-25 06:18 7.97774 42.60655 32133 ft 523 kts 155°
2026-04-25 06:18 7.91155 42.63678 32135 ft 522 kts 155°
2026-04-25 06:19 7.84543 42.66699 32135 ft 521 kts 155°
2026-04-25 06:19 7.77940 42.69714 32127 ft 521 kts 155°
2026-04-25 06:20 7.71343 42.72728 32130 ft 520 kts 155°
2026-04-25 06:20 7.64744 42.75741 32118 ft 521 kts 155°
2026-04-25 06:21 7.58139 42.78755 32125 ft 521 kts 155°
2026-04-25 06:21 7.51522 42.81772 32121 ft 522 kts 155°
2026-04-25 06:22 7.44905 42.84788 32116 ft 522 kts 155°
2026-04-25 06:22 7.38287 42.87809 32118 ft 522 kts 155°
2026-04-25 06:23 7.31665 42.90823 32103 ft 522 kts 155°
2026-04-25 06:23 7.25042 42.93841 32100 ft 522 kts 155°
2026-04-25 06:24 7.18425 42.96855 32103 ft 522 kts 155°
2026-04-25 06:24 7.11815 42.99866 32096 ft 522 kts 155°
2026-04-25 06:25 7.05281 43.02840 32091 ft 521 kts 155°
2026-04-25 06:25 6.98726 43.05822 32091 ft 521 kts 155°
2026-04-25 06:26 6.92124 43.08829 32090 ft 521 kts 155°
2026-04-25 06:26 6.85523 43.11840 32085 ft 521 kts 155°
2026-04-25 06:27 6.78922 43.14853 32083 ft 521 kts 155°
2026-04-25 06:27 6.72317 43.17866 32083 ft 521 kts 155°
2026-04-25 06:28 6.65718 43.20874 32083 ft 521 kts 155°
2026-04-25 06:28 6.59117 43.23882 32077 ft 521 kts 155°
2026-04-25 06:29 6.52519 43.26887 32071 ft 521 kts 155°
2026-04-25 06:29 6.45920 43.29892 32072 ft 521 kts 155°
2026-04-25 06:30 6.39322 43.32899 32064 ft 521 kts 155°
2026-04-25 06:30 6.33837 43.35396 32067 ft 521 kts 155°
2026-04-25 06:31 6.27233 43.38401 32066 ft 521 kts 155°
2026-04-25 06:31 6.20627 43.41407 32050 ft 521 kts 155°
2026-04-25 06:32 6.14029 43.44409 32057 ft 520 kts 155°
2026-04-25 06:32 6.07434 43.47408 32055 ft 520 kts 155°
2026-04-25 06:33 6.00836 43.50407 32044 ft 520 kts 155°
2026-04-25 06:33 5.94252 43.53400 32047 ft 520 kts 155°
2026-04-25 06:34 5.87658 43.56397 32045 ft 520 kts 155°
2026-04-25 06:34 5.81066 43.59390 32036 ft 520 kts 155°
2026-04-25 06:35 5.74474 43.62387 32038 ft 520 kts 155°
2026-04-25 06:35 5.67925 43.65361 32037 ft 520 kts 155°
2026-04-25 06:36 5.61333 43.68358 32027 ft 520 kts 155°
2026-04-25 06:36 5.54698 43.71380 32027 ft 520 kts 155°
2026-04-25 06:37 5.48153 43.74362 32030 ft 520 kts 155°
2026-04-25 06:37 5.41522 43.77383 32024 ft 520 kts 155°
2026-04-25 06:38 5.34937 43.80379 32016 ft 520 kts 155°
2026-04-25 06:38 5.28359 43.83372 32019 ft 519 kts 155°
2026-04-25 06:39 5.21779 43.86364 32014 ft 519 kts 155°
2026-04-25 06:39 5.15208 43.89355 32008 ft 518 kts 155°
2026-04-25 06:40 5.08644 43.92341 32009 ft 518 kts 155°
2026-04-25 06:40 5.02127 43.95304 32009 ft 518 kts 155°
2026-04-25 06:41 4.95578 43.98282 32002 ft 517 kts 155°
2026-04-25 06:41 4.89090 44.01222 31998 ft 517 kts 155°
2026-04-25 06:42 4.82515 44.04154 32000 ft 517 kts 156°
2026-04-25 06:42 4.75933 44.07073 32000 ft 517 kts 156°
2026-04-25 06:43 4.69353 44.10001 31987 ft 517 kts 156°
2026-04-25 06:43 4.62780 44.12930 31999 ft 517 kts 156°
2026-04-25 06:44 4.56200 44.15857 31985 ft 517 kts 156°
2026-04-25 06:44 4.49623 44.18787 31986 ft 517 kts 155°
2026-04-25 06:45 4.43042 44.21718 32000 ft 519 kts 155°
2026-04-25 06:45 4.36428 44.24662 31967 ft 520 kts 155°
2026-04-25 06:46 4.29825 44.27603 31968 ft 518 kts 155°
2026-04-25 06:46 4.23254 44.30527 31977 ft 516 kts 156°
2026-04-25 06:47 4.16704 44.33441 31969 ft 514 kts 155°
2026-04-25 06:47 4.10167 44.36347 31971 ft 514 kts 156°
2026-04-25 06:48 4.03630 44.39253 31972 ft 514 kts 155°
2026-04-25 06:48 3.97091 44.42163 31973 ft 515 kts 155°
2026-04-25 06:49 3.90579 44.45058 31965 ft 516 kts 155°
2026-04-25 06:49 3.84015 44.47978 31967 ft 518 kts 156°
2026-04-25 06:50 3.77411 44.50913 31971 ft 520 kts 156°
2026-04-25 06:50 3.70804 44.53849 31952 ft 518 kts 156°
2026-04-25 06:51 3.64231 44.56769 31955 ft 516 kts 156°
2026-04-25 06:51 3.57678 44.59678 31968 ft 516 kts 156°
2026-04-25 06:52 3.51104 44.62598 31965 ft 517 kts 156°
2026-04-25 06:52 3.44528 44.65519 31954 ft 516 kts 156°
2026-04-25 06:53 3.37970 44.68430 31961 ft 515 kts 156°
2026-04-25 06:53 3.31415 44.71341 31966 ft 516 kts 156°
2026-04-25 06:54 3.24844 44.74259 31941 ft 517 kts 156°
2026-04-25 06:54 3.18278 44.77173 31949 ft 516 kts 156°
2026-04-25 06:55 3.11711 44.80087 31942 ft 516 kts 156°
2026-04-25 06:55 3.05149 44.82997 31948 ft 517 kts 156°
2026-04-25 06:56 2.98576 44.85912 31947 ft 517 kts 156°
2026-04-25 06:56 2.92004 44.88827 31950 ft 516 kts 156°
2026-04-25 06:57 2.85444 44.91739 31949 ft 516 kts 156°
2026-04-25 06:57 2.78876 44.94652 31933 ft 516 kts 156°
2026-04-25 06:58 2.72312 44.97564 31952 ft 516 kts 156°
2026-04-25 06:58 2.65874 45.00416 31928 ft 517 kts 156°
2026-04-25 06:59 2.59304 45.03330 31947 ft 517 kts 156°
2026-04-25 06:59 2.52729 45.06245 31931 ft 517 kts 156°
2026-04-25 07:00 2.46157 45.09157 31945 ft 517 kts 156°
2026-04-25 07:00 2.39581 45.12071 31949 ft 517 kts 156°
2026-04-25 07:01 2.33011 45.14983 31946 ft 517 kts 156°
2026-04-25 07:01 2.26434 45.17899 31951 ft 517 kts 156°
2026-04-25 07:02 2.19864 45.20808 31947 ft 517 kts 156°
2026-04-25 07:02 2.13291 45.23719 31946 ft 517 kts 156°
2026-04-25 07:03 2.06719 45.26632 31932 ft 517 kts 156°
2026-04-25 07:03 2.00147 45.29542 31932 ft 517 kts 156°
2026-04-25 07:04 1.93550 45.32400 31948 ft 517 kts 156°
2026-04-25 07:04 1.86930 45.35229 31941 ft 518 kts 157°
2026-04-25 07:05 1.80309 45.38063 31935 ft 517 kts 156°
2026-04-25 07:05 1.73704 45.40902 31947 ft 517 kts 156°
2026-04-25 07:06 1.67097 45.43743 31933 ft 517 kts 156°
2026-04-25 07:06 1.60493 45.46583 31932 ft 517 kts 156°
2026-04-25 07:07 1.53885 45.49424 31939 ft 517 kts 156°
2026-04-25 07:07 1.47287 45.52260 31933 ft 516 kts 156°
2026-04-25 07:08 1.40689 45.55093 31932 ft 516 kts 156°
2026-04-25 07:08 1.34087 45.57931 31937 ft 517 kts 156°
2026-04-25 07:09 1.27472 45.60776 31940 ft 518 kts 156°
2026-04-25 07:09 1.20849 45.63621 31928 ft 518 kts 156°
2026-04-25 07:10 1.14230 45.66465 31943 ft 518 kts 156°
2026-04-25 07:10 1.07615 45.69307 31936 ft 518 kts 156°
2026-04-25 07:11 1.00995 45.72154 31931 ft 518 kts 156°
2026-04-25 07:11 0.94375 45.74999 31935 ft 518 kts 156°
2026-04-25 07:12 0.87755 45.77840 31931 ft 518 kts 156°
2026-04-25 07:12 0.77811 45.82112 31932 ft 519 kts 156°
2026-04-25 07:13 0.71180 45.84963 31932 ft 519 kts 156°
2026-04-25 07:13 0.64551 45.87810 31939 ft 519 kts 156°
2026-04-25 07:14 0.57961 45.90641 31933 ft 520 kts 156°
2026-04-25 07:14 0.51315 45.93512 31946 ft 519 kts 155°
2026-04-25 07:15 0.44697 45.96419 31928 ft 520 kts 155°
2026-04-25 07:15 0.38073 45.99331 31937 ft 520 kts 155°
2026-04-25 07:16 0.31537 46.02197 31930 ft 521 kts 155°
2026-04-25 07:16 0.25980 46.04632 31937 ft 521 kts 155°
2026-04-25 07:17 0.19340 46.07540 31929 ft 521 kts 155°
2026-04-25 07:17 0.12748 46.10429 31946 ft 521 kts 155°
2026-04-25 07:18 0.06111 46.13337 31935 ft 521 kts 155°
2026-04-25 07:18 -0.00518 46.16243 31927 ft 521 kts 155°
2026-04-25 07:19 -0.07158 46.19152 31934 ft 521 kts 155°
2026-04-25 07:19 -0.13795 46.22062 31935 ft 521 kts 155°
2026-04-25 07:20 -0.20479 46.24986 31938 ft 521 kts 155°
2026-04-25 07:20 -0.27149 46.27833 31931 ft 521 kts 156°
2026-04-25 07:21 -0.33774 46.30639 31938 ft 521 kts 156°
2026-04-25 07:21 -0.40450 46.33473 31933 ft 521 kts 156°
2026-04-25 07:22 -0.47122 46.36310 31927 ft 521 kts 156°
2026-04-25 07:22 -0.53788 46.39148 31942 ft 520 kts 156°
2026-04-25 07:23 -0.60443 46.41983 31934 ft 520 kts 156°
2026-04-25 07:23 -0.67098 46.44819 31929 ft 520 kts 156°
2026-04-25 07:24 -0.73754 46.47653 31933 ft 520 kts 156°
2026-04-25 07:24 -0.80417 46.50491 31930 ft 521 kts 156°
2026-04-25 07:25 -0.87090 46.53334 31922 ft 521 kts 156°
2026-04-25 07:25 -0.93751 46.56170 31924 ft 521 kts 156°
2026-04-25 07:26 -1.00413 46.59007 31926 ft 521 kts 156°
2026-04-25 07:26 -1.07083 46.61849 31924 ft 521 kts 156°
2026-04-25 07:27 -1.13746 46.64687 31930 ft 521 kts 156°
2026-04-25 07:27 -1.20414 46.67529 31929 ft 521 kts 156°
2026-04-25 07:28 -1.27087 46.70375 31930 ft 522 kts 156°
2026-04-25 07:28 -1.33768 46.73227 31930 ft 522 kts 156°
2026-04-25 07:29 -1.40446 46.76079 31922 ft 522 kts 156°
2026-04-25 07:29 -1.47121 46.78927 31931 ft 522 kts 156°
2026-04-25 07:30 -1.53793 46.81774 31925 ft 521 kts 156°
2026-04-25 07:30 -1.60464 46.84621 31927 ft 521 kts 156°
2026-04-25 07:31 -1.67133 46.87468 31925 ft 521 kts 156°
2026-04-25 07:31 -1.73792 46.90312 31923 ft 521 kts 156°
2026-04-25 07:32 -1.80460 46.93159 31926 ft 521 kts 156°
2026-04-25 07:32 -1.87134 46.96007 31926 ft 521 kts 156°
2026-04-25 07:33 -1.93760 46.98837 31923 ft 521 kts 156°
2026-04-25 07:33 -2.00302 47.01631 31925 ft 521 kts 156°
2026-04-25 07:34 -2.06955 47.04472 31925 ft 520 kts 157°
2026-04-25 07:34 -2.13600 47.07312 31923 ft 519 kts 157°
2026-04-25 07:35 -2.20229 47.10143 31922 ft 518 kts 157°
2026-04-25 07:35 -2.26853 47.12972 31928 ft 517 kts 157°
2026-04-25 07:36 -2.33475 47.15801 31931 ft 518 kts 157°
2026-04-25 07:36 -2.40103 47.18634 31934 ft 518 kts 157°
2026-04-25 07:37 -2.46729 47.21464 31945 ft 518 kts 157°
2026-04-25 07:37 -2.53364 47.24301 31933 ft 518 kts 157°
2026-04-25 07:38 -2.59994 47.27134 31932 ft 518 kts 157°
2026-04-25 07:38 -2.66626 47.29969 31936 ft 518 kts 157°
2026-04-25 07:39 -2.73246 47.32800 31931 ft 518 kts 157°
2026-04-25 07:39 -2.79867 47.35631 31931 ft 517 kts 157°
2026-04-25 07:40 -2.86484 47.38461 31934 ft 517 kts 157°
2026-04-25 07:40 -2.93098 47.41290 31941 ft 516 kts 157°
2026-04-25 07:41 -2.99701 47.44115 31936 ft 516 kts 157°
2026-04-25 07:41 -3.06295 47.46935 31936 ft 516 kts 157°
2026-04-25 07:42 -3.12894 47.49761 31933 ft 516 kts 157°
2026-04-25 07:42 -3.19502 47.52588 31927 ft 516 kts 157°
2026-04-25 07:43 -3.26108 47.55417 31946 ft 516 kts 157°
2026-04-25 07:43 -3.32710 47.58243 31948 ft 516 kts 157°
2026-04-25 07:44 -3.39264 47.61052 31948 ft 515 kts 157°
2026-04-25 07:44 -3.45900 47.63895 31946 ft 515 kts 157°
2026-04-25 07:45 -3.52440 47.66695 31949 ft 514 kts 157°
2026-04-25 07:45 -3.59060 47.69531 31949 ft 514 kts 157°
2026-04-25 07:46 -3.65587 47.72329 31932 ft 514 kts 157°
2026-04-25 07:46 -3.72157 47.75146 31950 ft 513 kts 157°
2026-04-25 07:47 -3.78722 47.77960 31947 ft 513 kts 157°
2026-04-25 07:47 -3.85292 47.80778 31947 ft 513 kts 157°
2026-04-25 07:48 -3.91854 47.83591 31934 ft 513 kts 157°
2026-04-25 07:48 -3.98418 47.86406 31949 ft 513 kts 157°
2026-04-25 07:49 -4.04957 47.89213 31947 ft 513 kts 157°
2026-04-25 07:49 -4.11520 47.92029 31934 ft 513 kts 157°
2026-04-25 07:50 -4.18077 47.94844 31939 ft 513 kts 157°
2026-04-25 07:50 -4.24643 47.97661 31941 ft 513 kts 157°
2026-04-25 07:51 -4.31112 48.00430 31936 ft 513 kts 157°
2026-04-25 07:51 -4.37683 48.03240 31942 ft 514 kts 157°
2026-04-25 07:52 -4.44262 48.06056 31933 ft 514 kts 157°
2026-04-25 07:52 -4.50790 48.08854 31946 ft 514 kts 157°
2026-04-25 07:53 -4.57367 48.11673 31937 ft 514 kts 157°
2026-04-25 07:53 -4.63987 48.14511 31936 ft 514 kts 157°
2026-04-25 07:54 -4.70560 48.17329 31940 ft 514 kts 157°
2026-04-25 07:54 -4.77094 48.20129 31938 ft 514 kts 157°
2026-04-25 07:55 -4.83673 48.22950 31940 ft 514 kts 157°
2026-04-25 07:55 -4.90252 48.25773 31932 ft 515 kts 157°
2026-04-25 07:56 -4.96843 48.28601 31946 ft 516 kts 157°
2026-04-25 07:56 -5.03436 48.31431 31935 ft 516 kts 157°
2026-04-25 07:57 -5.10042 48.34267 31943 ft 516 kts 157°
2026-04-25 07:57 -5.16650 48.37103 31936 ft 517 kts 157°
2026-04-25 07:58 -5.23259 48.39940 31921 ft 516 kts 157°
2026-04-25 07:58 -5.29862 48.42777 31929 ft 516 kts 157°
2026-04-25 07:59 -5.36470 48.45617 31929 ft 517 kts 157°
2026-04-25 07:59 -5.43079 48.48456 31926 ft 517 kts 157°
2026-04-25 08:00 -5.49692 48.51299 31928 ft 517 kts 157°
2026-04-25 08:00 -5.56304 48.54142 31929 ft 517 kts 157°
2026-04-25 08:01 -5.61800 48.56506 31924 ft 517 kts 157°
2026-04-25 08:01 -5.69529 48.59829 31922 ft 517 kts 157°
2026-04-25 08:02 -5.76138 48.62674 31921 ft 517 kts 157°
2026-04-25 08:02 -5.81637 48.65039 31922 ft 517 kts 157°
2026-04-25 08:03 -5.88250 48.67886 31922 ft 517 kts 157°
2026-04-25 08:03 -5.94873 48.70738 31920 ft 518 kts 157°
2026-04-25 08:04 -6.01486 48.73585 31911 ft 518 kts 157°
2026-04-25 08:04 -6.08109 48.76439 31922 ft 518 kts 157°
2026-04-25 08:05 -6.14731 48.79293 31921 ft 518 kts 157°
2026-04-25 08:05 -6.21352 48.82147 31912 ft 518 kts 157°
2026-04-25 08:06 -6.27977 48.85005 31921 ft 518 kts 157°
2026-04-25 08:06 -6.34595 48.87858 31917 ft 518 kts 157°
2026-04-25 08:07 -6.41215 48.90714 31918 ft 517 kts 158°
2026-04-25 08:07 -6.47782 48.93548 31922 ft 517 kts 158°
2026-04-25 08:08 -6.54406 48.96407 31916 ft 518 kts 158°
2026-04-25 08:08 -6.61072 48.99287 31916 ft 518 kts 158°
2026-04-25 08:09 -6.67525 49.02072 31917 ft 518 kts 158°
2026-04-25 08:09 -6.74145 49.04932 31916 ft 518 kts 158°
2026-04-25 08:10 -6.80773 49.07796 31915 ft 518 kts 158°
2026-04-25 08:10 -6.87396 49.10657 31915 ft 518 kts 158°
2026-04-25 08:11 -6.94018 49.13519 31913 ft 518 kts 158°
2026-04-25 08:11 -7.00630 49.16380 31917 ft 518 kts 158°
2026-04-25 08:12 -7.07252 49.19247 31913 ft 518 kts 158°
2026-04-25 08:12 -7.13869 49.22113 31918 ft 518 kts 158°
2026-04-25 08:13 -7.20485 49.24977 31916 ft 517 kts 158°
2026-04-25 08:14 -7.30410 49.29275 31919 ft 518 kts 158°
2026-04-25 08:14 -7.37026 49.32142 31916 ft 518 kts 158°
2026-04-25 08:15 -7.43642 49.35010 31914 ft 518 kts 158°
2026-04-25 08:15 -7.50256 49.37879 31916 ft 518 kts 158°
2026-04-25 08:16 -7.56874 49.40749 31912 ft 518 kts 158°
2026-04-25 08:16 -7.63487 49.43617 31905 ft 518 kts 158°
2026-04-25 08:17 -7.70102 49.46489 31905 ft 517 kts 158°
2026-04-25 08:17 -7.76712 49.49358 31905 ft 517 kts 158°
2026-04-25 08:18 -7.83315 49.52225 31906 ft 517 kts 158°
2026-04-25 08:18 -7.89918 49.55093 31909 ft 516 kts 158°
2026-04-25 08:19 -7.96514 49.57961 31904 ft 517 kts 158°
2026-04-25 08:19 -8.03115 49.60832 31909 ft 517 kts 158°
2026-04-25 08:20 -8.09720 49.63701 31909 ft 517 kts 158°
2026-04-25 08:20 -8.16315 49.66571 31907 ft 516 kts 158°
2026-04-25 08:21 -8.22905 49.69439 31921 ft 516 kts 158°
2026-04-25 08:21 -8.29495 49.72309 31916 ft 515 kts 158°
2026-04-25 08:22 -8.36081 49.75177 31920 ft 516 kts 158°
2026-04-25 08:22 -8.42631 49.78031 31915 ft 516 kts 158°
2026-04-25 08:23 -8.49226 49.80910 31923 ft 517 kts 158°
2026-04-25 08:23 -8.55826 49.83787 31919 ft 516 kts 158°
2026-04-25 08:24 -8.62422 49.86663 31915 ft 516 kts 158°
2026-04-25 08:24 -8.69013 49.89540 31918 ft 516 kts 158°
2026-04-25 08:25 -8.75601 49.92413 31919 ft 516 kts 158°
2026-04-25 08:25 -8.82194 49.95291 31915 ft 516 kts 158°
2026-04-25 08:26 -8.88784 49.98171 31919 ft 516 kts 158°
2026-04-25 08:26 -8.95283 50.01013 31915 ft 516 kts 158°
2026-04-25 08:27 -9.01879 50.03898 31906 ft 517 kts 158°
2026-04-25 08:27 -9.08479 50.06784 31896 ft 517 kts 158°
2026-04-25 08:28 -9.15079 50.09673 31900 ft 517 kts 158°
2026-04-25 08:28 -9.21682 50.12563 31897 ft 516 kts 158°
2026-04-25 08:29 -9.28271 50.15448 31896 ft 516 kts 158°
2026-04-25 08:29 -9.34852 50.18332 31899 ft 515 kts 158°
2026-04-25 08:30 -9.41434 50.21216 31899 ft 515 kts 158°
2026-04-25 08:30 -9.48009 50.24099 31899 ft 515 kts 158°
2026-04-25 08:31 -9.54591 50.26987 31898 ft 515 kts 158°
2026-04-25 08:31 -9.61163 50.29872 31899 ft 515 kts 158°
2026-04-25 08:32 -9.67747 50.32760 31897 ft 515 kts 158°
2026-04-25 08:32 -9.74327 50.35653 31899 ft 515 kts 158°
2026-04-25 08:33 -9.80902 50.38542 31899 ft 515 kts 158°
2026-04-25 08:33 -9.87477 50.41430 31897 ft 515 kts 158°
2026-04-25 08:34 -9.94045 50.44319 31899 ft 515 kts 158°
2026-04-25 08:34 -10.00608 50.47205 31899 ft 515 kts 158°
2026-04-25 08:35 -10.07187 50.50097 31899 ft 515 kts 158°
2026-04-25 08:35 -10.13765 50.52990 31894 ft 515 kts 158°
2026-04-25 08:36 -10.20337 50.55887 31889 ft 515 kts 158°
2026-04-25 08:36 -10.26907 50.58789 31891 ft 515 kts 158°
2026-04-25 08:37 -10.33472 50.61689 31887 ft 515 kts 158°
2026-04-25 08:37 -10.40043 50.64592 31890 ft 515 kts 158°
2026-04-25 08:38 -10.46618 50.67496 31889 ft 515 kts 158°
2026-04-25 08:38 -10.53191 50.70397 31891 ft 515 kts 158°
2026-04-25 08:39 -10.59764 50.73298 31893 ft 515 kts 158°
2026-04-25 08:39 -10.66341 50.76204 31887 ft 516 kts 158°
2026-04-25 08:40 -10.72916 50.79111 31890 ft 516 kts 158°
2026-04-25 08:40 -10.79502 50.82024 31888 ft 516 kts 158°
2026-04-25 08:41 -10.86075 50.84933 31889 ft 515 kts 158°
2026-04-25 08:41 -10.92651 50.87846 31888 ft 515 kts 158°
2026-04-25 08:42 -10.99218 50.90755 31887 ft 515 kts 158°
2026-04-25 08:42 -11.05781 50.93663 31889 ft 515 kts 158°
2026-04-25 08:43 -11.12347 50.96575 31890 ft 515 kts 158°
2026-04-25 08:43 -11.18916 50.99488 31888 ft 515 kts 158°
2026-04-25 08:44 -11.25393 51.02363 31892 ft 515 kts 158°
2026-04-25 08:44 -11.31959 51.05278 31887 ft 515 kts 158°
2026-04-25 08:45 -11.38478 51.08175 31891 ft 514 kts 158°
2026-04-25 08:45 -11.45033 51.11092 31886 ft 514 kts 158°
2026-04-25 08:46 -11.51588 51.14008 31890 ft 514 kts 158°
2026-04-25 08:46 -11.58147 51.16925 31889 ft 514 kts 158°
2026-04-25 08:47 -11.64694 51.19839 31889 ft 513 kts 158°
2026-04-25 08:47 -11.71236 51.22755 31891 ft 513 kts 158°
2026-04-25 08:48 -11.76716 51.25196 31889 ft 513 kts 158°
2026-04-25 08:48 -11.83252 51.28110 31890 ft 512 kts 158°
2026-04-25 08:49 -11.89735 51.31001 31891 ft 512 kts 158°
2026-04-25 08:49 -11.96270 51.33921 31891 ft 513 kts 158°
2026-04-25 08:50 -12.02805 51.36839 31889 ft 513 kts 158°
2026-04-25 08:50 -12.09382 51.39780 31889 ft 512 kts 158°
2026-04-25 08:51 -12.15907 51.42696 31888 ft 512 kts 158°
2026-04-25 08:51 -12.22438 51.45610 31891 ft 512 kts 158°
2026-04-25 08:52 -12.28962 51.48524 31887 ft 512 kts 158°
2026-04-25 08:52 -12.35481 51.51441 31889 ft 512 kts 158°
2026-04-25 08:53 -12.42005 51.54362 31900 ft 512 kts 158°
2026-04-25 08:53 -12.48527 51.57282 31907 ft 512 kts 158°
2026-04-25 08:54 -12.55001 51.60182 31910 ft 511 kts 158°
2026-04-25 08:54 -12.61567 51.63125 31910 ft 512 kts 158°
2026-04-25 08:55 -12.68053 51.66034 31910 ft 512 kts 158°
2026-04-25 08:55 -12.74579 51.68962 31911 ft 512 kts 158°
2026-04-25 08:56 -12.81110 51.71896 31908 ft 513 kts 158°
2026-04-25 08:56 -12.87637 51.74830 31907 ft 513 kts 158°
2026-04-25 08:57 -12.94173 51.77769 31905 ft 513 kts 158°
2026-04-25 08:57 -13.00704 51.80704 31907 ft 513 kts 158°
2026-04-25 08:58 -13.07239 51.83647 31906 ft 513 kts 158°
2026-04-25 08:58 -13.13768 51.86587 31908 ft 512 kts 158°
2026-04-25 08:59 -13.20300 51.89529 31909 ft 513 kts 158°
2026-04-25 08:59 -13.26832 51.92474 31908 ft 513 kts 158°
2026-04-25 09:00 -13.33360 51.95420 31907 ft 513 kts 158°
2026-04-25 09:00 -13.39892 51.98369 31913 ft 513 kts 158°
2026-04-25 09:01 -13.46327 52.01275 31918 ft 513 kts 159°
2026-04-25 09:01 -13.52868 52.04230 31914 ft 514 kts 159°
2026-04-25 09:02 -13.59425 52.07195 31919 ft 515 kts 159°
2026-04-25 09:02 -13.65965 52.10155 31912 ft 507 kts 159°
2026-04-25 09:02 -13.69090 52.11576 31967 ft 476 kts 159°
2026-04-25 09:03 -13.72043 52.12919 32055 ft 456 kts 159°
2026-04-25 09:03 -13.77785 52.15521 31935 ft 449 kts 159°
2026-04-25 09:04 -13.83642 52.18164 31934 ft 470 kts 159°
2026-04-25 09:04 -13.89760 52.20930 31944 ft 490 kts 159°
2026-04-25 09:05 -13.96104 52.23807 31937 ft 505 kts 159°
2026-04-25 09:05 -14.02612 52.26764 31937 ft 516 kts 159°
2026-04-25 09:06 -14.09175 52.29749 31917 ft 514 kts 159°
2026-04-25 09:06 -14.15712 52.32724 31931 ft 513 kts 159°
2026-04-25 09:07 -14.22229 52.35692 31931 ft 512 kts 159°
2026-04-25 09:07 -14.28742 52.38655 31932 ft 512 kts 159°
2026-04-25 09:08 -14.35257 52.41622 31947 ft 512 kts 159°
2026-04-25 09:08 -14.41780 52.44594 31934 ft 512 kts 159°
2026-04-25 09:09 -14.48301 52.47567 31946 ft 513 kts 159°
2026-04-25 09:09 -14.54827 52.50546 31935 ft 513 kts 159°
2026-04-25 09:10 -14.61350 52.53523 31946 ft 512 kts 159°
2026-04-25 09:10 -14.67864 52.56500 31948 ft 512 kts 159°
2026-04-25 09:11 -14.77622 52.60965 31945 ft 511 kts 159°
2026-04-25 09:11 -14.84125 52.63942 31946 ft 510 kts 159°
2026-04-25 09:12 -14.90620 52.66915 31929 ft 511 kts 159°
2026-04-25 09:12 -14.97116 52.69892 31948 ft 511 kts 159°
2026-04-25 09:13 -15.03608 52.72870 31946 ft 511 kts 159°
2026-04-25 09:13 -15.10107 52.75852 31940 ft 511 kts 159°
2026-04-25 09:14 -15.16609 52.78837 31949 ft 511 kts 159°
2026-04-25 09:14 -15.23108 52.81824 31946 ft 511 kts 159°
2026-04-25 09:15 -15.29598 52.84809 31932 ft 510 kts 159°
2026-04-25 09:15 -15.36089 52.87798 31949 ft 510 kts 159°
2026-04-25 09:16 -15.42575 52.90784 31932 ft 510 kts 159°
2026-04-25 09:16 -15.49060 52.93771 31947 ft 510 kts 159°
2026-04-25 09:17 -15.58772 52.98251 31955 ft 510 kts 159°
2026-04-25 09:18 -15.65174 53.01207 31959 ft 510 kts 159°
2026-04-25 09:18 -15.71653 53.04199 31949 ft 510 kts 159°
2026-04-25 09:19 -15.78135 53.07195 31953 ft 510 kts 159°
2026-04-25 09:19 -15.84605 53.10187 31953 ft 509 kts 159°
2026-04-25 09:20 -15.91083 53.13185 31965 ft 509 kts 159°
2026-04-25 09:20 -15.97554 53.16186 31951 ft 510 kts 159°
2026-04-25 09:21 -16.04024 53.19184 31951 ft 509 kts 159°
2026-04-25 09:21 -16.10476 53.22175 31955 ft 507 kts 159°
2026-04-25 09:22 -16.16908 53.25160 31953 ft 506 kts 159°
2026-04-25 09:22 -16.23326 53.28141 31952 ft 505 kts 159°
2026-04-25 09:23 -16.29736 53.31122 31954 ft 504 kts 159°
2026-04-25 09:23 -16.36139 53.34101 31963 ft 504 kts 159°
2026-04-25 09:24 -16.42549 53.37085 31953 ft 505 kts 159°
2026-04-25 09:24 -16.48960 53.40069 31960 ft 505 kts 159°
2026-04-25 09:25 -16.55369 53.43058 31955 ft 505 kts 159°
2026-04-25 09:25 -16.61789 53.46055 31953 ft 506 kts 159°
2026-04-25 09:26 -16.68211 53.49054 31954 ft 505 kts 159°
2026-04-25 09:26 -16.74621 53.52047 31951 ft 505 kts 159°
2026-04-25 09:27 -16.81029 53.55042 31943 ft 504 kts 159°
2026-04-25 09:27 -16.87424 53.58036 31948 ft 503 kts 158°
2026-04-25 09:28 -16.92731 53.60523 31946 ft 502 kts 158°
2026-04-25 09:28 -16.99094 53.63505 31942 ft 501 kts 158°
2026-04-25 09:29 -17.05453 53.66485 31945 ft 501 kts 158°
2026-04-25 09:29 -17.11799 53.69462 31947 ft 500 kts 158°
2026-04-25 09:30 -17.18147 53.72442 31937 ft 500 kts 158°
2026-04-25 09:30 -17.24488 53.75423 31946 ft 499 kts 158°
2026-04-25 09:31 -17.30818 53.78402 31941 ft 499 kts 158°
2026-04-25 09:31 -17.37145 53.81379 31948 ft 498 kts 158°
2026-04-25 09:32 -17.43462 53.84354 31945 ft 498 kts 158°
2026-04-25 09:32 -17.49769 53.87328 31936 ft 497 kts 158°
2026-04-25 09:33 -17.56071 53.90301 31944 ft 496 kts 158°
2026-04-25 09:33 -17.62363 53.93272 31948 ft 496 kts 158°
2026-04-25 09:34 -17.68649 53.96242 31946 ft 495 kts 158°
2026-04-25 09:34 -17.74927 53.99211 31944 ft 495 kts 158°
2026-04-25 09:35 -17.81132 54.02148 31948 ft 495 kts 158°
2026-04-25 09:35 -17.87405 54.05118 31944 ft 494 kts 158°
2026-04-25 09:36 -17.93671 54.08088 31947 ft 494 kts 158°
2026-04-25 09:36 -17.99938 54.11062 31944 ft 495 kts 158°
2026-04-25 09:37 -18.06158 54.14013 31947 ft 495 kts 158°
2026-04-25 09:37 -18.12436 54.16995 31948 ft 495 kts 158°
2026-04-25 09:38 -18.18748 54.19997 31946 ft 495 kts 158°
2026-04-25 09:38 -18.25023 54.22982 31972 ft 495 kts 158°
2026-04-25 09:39 -18.31294 54.25969 31980 ft 495 kts 158°
2026-04-25 09:39 -18.37562 54.28958 31982 ft 495 kts 158°
2026-04-25 09:40 -18.46972 54.33446 31980 ft 495 kts 158°
2026-04-25 09:40 -18.53249 54.36445 31975 ft 495 kts 158°
2026-04-25 09:41 -18.59526 54.39444 31969 ft 495 kts 158°
2026-04-25 09:41 -18.65889 54.42161 31974 ft 492 kts 161°
2026-04-25 09:42 -18.72302 54.44686 31972 ft 492 kts 162°
2026-04-25 09:42 -18.78713 54.47205 31969 ft 492 kts 161°
2026-04-25 09:43 -18.85117 54.49754 31962 ft 492 kts 161°
2026-04-25 09:43 -18.91511 54.52312 31965 ft 492 kts 161°
2026-04-25 09:44 -18.97904 54.54878 31963 ft 492 kts 161°
2026-04-25 09:44 -19.04243 54.57423 31955 ft 492 kts 161°
2026-04-25 09:45 -19.10639 54.59992 31929 ft 492 kts 161°
2026-04-25 09:45 -19.17033 54.62560 31934 ft 491 kts 161°
2026-04-25 09:46 -19.23413 54.65128 31947 ft 490 kts 161°
2026-04-25 09:46 -19.29790 54.67693 31932 ft 490 kts 161°
2026-04-25 09:47 -19.36157 54.70258 31933 ft 486 kts 161°
2026-04-25 09:47 -19.39309 54.71528 31406 ft 486 kts 161°
2026-04-25 09:47 -19.42473 54.72802 30554 ft 487 kts 161°
2026-04-25 09:48 -19.45623 54.74073 29887 ft 481 kts 161°
2026-04-25 09:48 -19.48739 54.75331 29189 ft 477 kts 161°
2026-04-25 09:48 -19.51824 54.76577 28499 ft 473 kts 161°
2026-04-25 09:48 -19.54887 54.77815 27826 ft 469 kts 161°
2026-04-25 09:49 -19.57920 54.79040 27154 ft 464 kts 161°
2026-04-25 09:49 -19.60929 54.80256 26489 ft 460 kts 161°
2026-04-25 09:49 -19.63908 54.81463 25826 ft 456 kts 161°
2026-04-25 09:49 -19.66853 54.82656 25166 ft 451 kts 161°
2026-04-25 09:50 -19.69776 54.83839 24514 ft 447 kts 161°
2026-04-25 09:50 -19.72665 54.85008 23872 ft 443 kts 161°
2026-04-25 09:50 -19.75529 54.86168 23234 ft 439 kts 160°
2026-04-25 09:50 -19.78366 54.87317 22609 ft 434 kts 160°
2026-04-25 09:51 -19.81180 54.88457 21996 ft 431 kts 160°
2026-04-25 09:51 -19.83963 54.89585 21381 ft 427 kts 160°
2026-04-25 09:51 -19.86727 54.90705 20777 ft 423 kts 160°
2026-04-25 09:51 -19.89469 54.91817 20181 ft 420 kts 160°
2026-04-25 09:52 -19.92187 54.92921 19584 ft 417 kts 159°
2026-04-25 09:52 -19.94889 54.94018 18998 ft 414 kts 159°
2026-04-25 09:52 -19.97574 54.95108 18402 ft 411 kts 159°
2026-04-25 09:52 -20.00224 54.96185 17823 ft 409 kts 159°
2026-04-25 09:53 -20.02872 54.97261 17236 ft 407 kts 159°
2026-04-25 09:53 -20.05512 54.98334 16651 ft 405 kts 159°
2026-04-25 09:53 -20.08135 54.99402 16066 ft 403 kts 159°
2026-04-25 09:53 -20.10677 55.00437 15496 ft 401 kts 159°
2026-04-25 09:54 -20.13274 55.01494 14913 ft 399 kts 159°
2026-04-25 09:54 -20.15858 55.02546 14329 ft 397 kts 159°
2026-04-25 09:54 -20.18434 55.03598 13750 ft 395 kts 159°
2026-04-25 09:54 -20.20997 55.04642 13172 ft 394 kts 159°
2026-04-25 09:55 -20.23550 55.05682 12596 ft 392 kts 159°
2026-04-25 09:55 -20.26086 55.06716 12022 ft 390 kts 159°
2026-04-25 09:55 -20.28617 55.07748 11455 ft 388 kts 159°
2026-04-25 09:55 -20.31119 55.08769 11068 ft 382 kts 158°
2026-04-25 09:56 -20.33560 55.09764 10892 ft 370 kts 158°
2026-04-25 09:56 -20.35926 55.10730 10721 ft 359 kts 158°
2026-04-25 09:56 -20.38221 55.11667 10561 ft 348 kts 158°
2026-04-25 09:56 -20.40447 55.12577 10416 ft 338 kts 158°
2026-04-25 09:57 -20.42612 55.13461 10276 ft 329 kts 158°
2026-04-25 09:57 -20.44717 55.14323 10148 ft 319 kts 158°
2026-04-25 09:57 -20.46762 55.15159 10018 ft 310 kts 158°
2026-04-25 09:57 -20.48762 55.15978 9799 ft 305 kts 158°
2026-04-25 09:58 -20.50733 55.16784 9575 ft 300 kts 158°
2026-04-25 09:58 -20.52636 55.17561 9415 ft 288 kts 157°
2026-04-25 09:58 -20.54499 55.18323 8992 ft 288 kts 157°
2026-04-25 09:58 -20.56363 55.19090 8247 ft 283 kts 157°
2026-04-25 09:59 -20.58166 55.19829 7688 ft 271 kts 156°
2026-04-25 09:59 -20.59858 55.20521 7496 ft 248 kts 156°
2026-04-25 09:59 -20.61468 55.21181 7457 ft 255 kts 156°
2026-04-25 09:59 -20.63189 55.21892 7110 ft 270 kts 156°
2026-04-25 10:00 -20.64948 55.22616 6779 ft 271 kts 156°
2026-04-25 10:00 -20.66701 55.23332 6449 ft 269 kts 156°
2026-04-25 10:00 -20.68443 55.24044 6130 ft 268 kts 156°
2026-04-25 10:00 -20.70175 55.24757 5811 ft 265 kts 156°
2026-04-25 10:01 -20.71887 55.25461 5498 ft 263 kts 156°
2026-04-25 10:01 -20.73587 55.26157 5198 ft 261 kts 156°
2026-04-25 10:01 -20.75254 55.26842 5045 ft 252 kts 156°
2026-04-25 10:01 -20.76862 55.27501 4925 ft 242 kts 156°
2026-04-25 10:02 -20.78398 55.28174 4699 ft 237 kts 150°
2026-04-25 10:02 -20.79830 55.29016 4431 ft 232 kts 148°
2026-04-25 10:02 -20.81208 55.29869 4284 ft 224 kts 148°
2026-04-25 10:02 -20.82511 55.30721 3997 ft 214 kts 136°
2026-04-25 10:03 -20.83279 55.31988 3796 ft 199 kts 111°
2026-04-25 10:03 -20.83720 55.33376 3531 ft 194 kts 108°
2026-04-25 10:03 -20.84106 55.34700 3267 ft 181 kts 108°
2026-04-25 10:03 -20.84480 55.35993 3135 ft 183 kts 108°
2026-04-25 10:04 -20.84839 55.37262 3090 ft 171 kts 108°
2026-04-25 10:04 -20.85168 55.38437 3044 ft 161 kts 108°
2026-04-25 10:04 -20.85499 55.39602 3055 ft 166 kts 108°
2026-04-25 10:04 -20.85826 55.40758 2923 ft 158 kts 108°
2026-04-25 10:05 -20.86127 55.41904 2358 ft 158 kts 108°
2026-04-25 10:05 -20.86468 55.42975 1862 ft 145 kts 110°
2026-04-25 10:05 -20.86798 55.43945 1439 ft 133 kts 108°
2026-04-25 10:05 -20.87077 55.44843 1225 ft 126 kts 107°
2026-04-25 10:06 -20.87362 55.45756 1024 ft 132 kts 108°
2026-04-25 10:06 -20.87659 55.46672 833 ft 130 kts 107°
2026-04-25 10:06 -20.87944 55.47586 636 ft 129 kts 105°
2026-04-25 10:06 -20.88175 55.48504 471 ft 126 kts 102°
2026-04-25 10:07 -20.88375 55.49417 303 ft 130 kts 103°
2026-04-25 10:07 -20.88583 55.50388 146 ft 139 kts 102°
2026-04-25 10:07 -20.88789 55.51385 62 ft 130 kts 102°
2026-04-25 10:07 -20.88945 55.52174 52 ft 82 kts 102°
2026-04-25 10:08 -20.89027 55.52580 49 ft 30 kts 102°
2026-04-25 10:08 -20.89055 55.52724 49 ft 19 kts 101°
2026-04-25 10:08 -20.89082 55.52859 51 ft 19 kts 103°
2026-04-25 10:08 -20.89111 55.52993 49 ft 19 kts 102°
2026-04-25 10:09 -20.89139 55.53130 50 ft 20 kts 103°
2026-04-25 10:09 -20.89175 55.53309 49 ft 16 kts 102°
2026-04-25 10:09 -20.89174 55.53422 48 ft 8 kts 91°
2026-04-25 10:09 -20.89198 55.53447 48 ft 4 kts 181°
2026-04-25 10:10 -20.89212 55.53426 48 ft 4 kts 266°
2026-04-25 10:10 -20.89196 55.53371 47 ft 17 kts 287°
2026-04-25 10:10 -20.89153 55.53189 46 ft 28 kts 283°
2026-04-25 10:10 -20.89118 55.53016 50 ft 41 kts 282°
2026-04-25 10:11 -20.89069 55.52765 53 ft 25 kts 281°
2026-04-25 10:11 -20.89033 55.52590 51 ft 24 kts 281°
2026-04-25 10:11 -20.89000 55.52399 56 ft 31 kts 282°
2026-04-25 10:11 -20.88943 55.52137 52 ft 41 kts 281°
2026-04-25 10:12 -20.88881 55.51849 53 ft 41 kts 283°
2026-04-25 10:12 -20.88829 55.51591 59 ft 38 kts 282°
2026-04-25 10:12 -20.88753 55.51182 58 ft 7 kts 260°
2026-04-25 10:13 -20.88791 55.51147 65 ft 8 kts 194°
2026-04-25 10:13 -20.88853 55.51157 65 ft 9 kts 162°
2026-04-25 10:13 -20.88917 55.51178 83 ft 12 kts 162°
2026-04-25 10:13 -20.88984 55.51234 91 ft 14 kts 124°
2026-04-25 10:14 -20.89024 55.51313 80 ft 6 kts 117°
2026-04-25 10:14 -20.89046 55.51321 84 ft 5 kts 185°
2026-04-25 10:14 -20.89082 55.51308 84 ft 5 kts 207°
2026-04-25 10:14 -20.89098 55.51300 82 ft 1 kts 207°
2026-04-25 10:15 -20.89108 55.51294 84 ft 1 kts 209°
2026-04-25 10:15 -20.89109 55.51293 79 ft 0 kts 209°
2026-04-25 10:19 -20.89109 55.51294 85 ft 0 kts 209°
2026-04-25 10:28 -20.89108 55.51294 85 ft 0 kts 209°